CW3318 Weather Reports


Display with metric or nautical units.
time (UTC)temp
F
wind
direction
speed
MPH
gust
MPH
rain 1hr
in
rain 24hr
in
rain mn
in
humidity
%
barometer
mb
20260903213252 60 5 2.0 5.0 0.00 0.11 0.00 52 1004.8
20260903213152 60 5 2.0 5.0 0.00 0.11 0.00 53 1004.8
20260903213055 60 5 2.0 5.0 0.00 0.11 0.00 53 1004.8
20260903212950 60 5 2.0 5.0 0.00 0.11 0.00 55 1004.8
20260903212859 60 5 2.0 5.0 0.00 0.11 0.00 54 1004.9
20260903212754 60 360 2.0 5.0 0.00 0.11 0.00 54 1004.9
20260903212653 60 360 3.0 5.0 0.00 0.11 0.00 54 1004.9
20260903212557 60 360 3.0 5.0 0.00 0.11 0.00 52 1004.9
20260903212453 59 360 3.0 5.0 0.00 0.11 0.00 53 1004.9
20260903212400 59 354 3.0 4.0 0.00 0.11 0.00 53 1004.9
20260903212242 59 354 3.0 4.0 0.00 0.11 0.00 54 1004.8
20260903212208 59 354 2.0 4.0 0.00 0.11 0.00 53 1004.8
20260903212044 59 350 2.0 4.0 0.00 0.11 0.00 53 1004.9
20260903211941 59 350 2.0 4.0 0.00 0.11 0.00 53 1004.9
20260903211907 59 350 2.0 4.0 0.00 0.11 0.00 53 1004.9
20260903211742 59 350 2.0 3.0 0.00 0.11 0.00 53 1004.9
20260903211708 59 349 2.0 3.0 0.00 0.11 0.00 53 1004.9
20260903211546 59 350 2.0 3.0 0.00 0.11 0.00 53 1004.9
20260903211452 59 349 1.0 3.0 0.00 0.11 0.00 53 1004.9
20260903211348 59 349 2.0 5.0 0.00 0.11 0.00 54 1005.0
20260903211315 59 349 2.0 5.0 0.00 0.11 0.00 54 1005.0
20260903211151 59 349 1.0 5.0 0.00 0.11 0.00 53 1005.0
20260903211056 59 349 1.0 5.0 0.00 0.11 0.00 53 1005.0
20260903210954 59 349 0.0 5.0 0.00 0.11 0.00 53 1005.0
20260903210846 59 349 1.0 5.0 0.00 0.11 0.00 54 1005.0
20260903210740 59 349 1.0 5.0 0.00 0.11 0.00 55 1005.0
20260903210648 59 349 2.0 5.0 0.00 0.11 0.00 55 1005.0
20260903210543 59 349 3.0 5.0 0.00 0.11 0.00 56 1005.0
20260903210509 59 349 3.0 5.0 0.00 0.11 0.00 55 1005.0
20260903210342 59 355 2.0 4.0 0.00 0.11 0.00 58 1005.0
20260903210259 59 355 2.0 4.0 0.00 0.11 0.00 56 1005.0
20260903210152 59 356 1.0 4.0 0.00 0.11 0.00 55 1005.0
20260903210049 59 356 1.0 4.0 0.00 0.13 0.00 54 1005.0
20260903210015 59 355 2.0 5.0 0.00 0.13 0.00 55 1005.0
20260903205851 58 356 3.0 5.0 0.00 0.13 0.00 56 1005.0
20260903205757 58 355 2.0 5.0 0.00 0.13 0.00 57 1005.0
20260903205654 58 355 2.0 5.0 0.00 0.13 0.00 56 1005.0
20260903205550 58 355 2.0 5.0 0.00 0.13 0.00 57 1005.0
20260903205454 58 355 2.0 5.0 0.00 0.13 0.00 58 1005.0
20260903205355 58 355 2.0 5.0 0.00 0.13 0.00 57 1005.0
20260903205301 58 356 3.0 5.0 0.00 0.13 0.00 58 1005.0
20260903205207 58 356 3.0 5.0 0.00 0.13 0.00 58 1005.0
20260903205042 58 356 2.0 4.0 0.00 0.13 0.00 58 1005.0
20260903204959 58 356 2.0 4.0 0.00 0.13 0.00 58 1005.0
20260903204844 58 356 2.0 4.0 0.00 0.13 0.00 58 1005.0
20260903204810 58 356 2.0 4.0 0.00 0.13 0.00 60 1005.0
20260903204650 58 356 2.0 4.0 0.00 0.13 0.00 60 1005.0
20260903204543 58 356 2.0 5.0 0.00 0.13 0.00 60 1005.0
20260903204450 58 355 1.0 5.0 0.00 0.13 0.00 60 1005.0
20260903204346 58 355 2.0 5.0 0.00 0.13 0.00 59 1005.0
20260903204253 58 355 2.0 5.0 0.00 0.13 0.00 59 1005.0
20260903204222 58 355 2.0 5.0 0.00 0.13 0.00 60 1005.0
20260903204056 58 355 2.0 5.0 0.00 0.13 0.00 60 1005.1
20260903203958 58 355 2.0 5.0 0.00 0.13 0.00 61 1005.1
20260903203905 58 355 2.0 5.0 0.00 0.13 0.00 61 1005.1
20260903203811 58 355 2.0 5.0 0.00 0.13 0.00 59 1005.2
20260903203649 58 354 1.0 3.0 0.00 0.13 0.00 61 1005.1
20260903203554 58 355 1.0 4.0 0.00 0.13 0.00 60 1005.1
20260903203448 57 355 1.0 5.0 0.00 0.13 0.00 60 1005.1
20260903203415 57 355 1.0 5.0 0.00 0.13 0.00 59 1005.1
20260903203251 57 355 1.0 5.0 0.00 0.13 0.00 59 1005.1
20260903203204 57 355 1.0 5.0 0.00 0.13 0.00 59 1005.1
20260903203039 57 355 1.0 5.0 0.00 0.13 0.00 59 1005.1
20260903202956 57 355 2.0 5.0 0.00 0.13 0.00 59 1005.2
20260903202843 57 355 3.0 5.0 0.00 0.13 0.00 59 1005.2
20260903202759 57 355 3.0 5.0 0.00 0.13 0.00 59 1005.2
20260903202706 57 355 3.0 5.0 0.00 0.13 0.00 59 1005.2
20260903202546 57 353 2.0 4.0 0.00 0.13 0.00 59 1005.2
20260903202444 57 352 1.0 4.0 0.00 0.13 0.00 59 1005.2
20260903202351 57 352 1.0 3.0 0.00 0.13 0.00 60 1005.3
20260903202249 57 352 0.0 3.0 0.00 0.13 0.00 61 1005.3
20260903202155 57 352 1.0 3.0 0.00 0.13 0.00 60 1005.3
20260903202050 57 352 1.0 3.0 0.00 0.13 0.00 58 1005.3
20260903201950 57 352 1.0 3.0 0.00 0.13 0.00 59 1005.3
20260903201857 57 352 1.0 2.0 0.00 0.13 0.00 59 1005.3
20260903201755 57 352 1.0 2.0 0.00 0.13 0.00 60 1005.3
20260903201703 57 352 1.0 2.0 0.00 0.13 0.00 60 1005.2
20260903201539 57 352 1.0 2.0 0.00 0.13 0.00 60 1005.3
20260903201506 57 352 1.0 2.0 0.00 0.13 0.00 62 1005.3
20260903201343 57 352 0.0 2.0 0.00 0.13 0.00 63 1005.3
20260903201240 57 352 0.0 2.0 0.00 0.13 0.00 60 1005.3
20260903201148 57 352 0.0 2.0 0.00 0.13 0.00 60 1005.3
20260903201103 57 352 0.0 3.0 0.00 0.13 0.00 59 1005.3
20260903200949 57 352 1.0 3.0 0.00 0.13 0.00 59 1005.3
20260903200916 57 352 1.0 3.0 0.00 0.13 0.00 59 1005.3
20260903200752 57 352 1.0 3.0 0.00 0.13 0.00 59 1005.3
20260903200647 57 352 1.0 3.0 0.00 0.13 0.00 59 1005.3
20260903200555 57 352 0.0 3.0 0.00 0.13 0.00 59 1005.3
20260903200453 57 352 0.0 4.0 0.00 0.13 0.00 61 1005.3
20260903200418 57 352 1.0 5.0 0.00 0.13 0.00 61 1005.3
20260903200314 57 352 1.0 5.0 0.00 0.13 0.00 62 1005.3
20260903200221 57 352 2.0 5.0 0.00 0.13 0.00 60 1005.3
20260903200104 57 352 1.0 5.0 0.00 0.13 0.00 60 1005.3
20260903195940 57 353 0.0 5.0 0.00 0.14 0.00 60 1005.3
20260903195841 57 353 1.0 5.0 0.00 0.14 0.00 59 1005.3
20260903195748 57 353 2.0 5.0 0.00 0.14 0.00 60 1005.3
20260903195645 57 353 3.0 5.0 0.00 0.14 0.00 60 1005.3
20260903195550 57 352 3.0 5.0 0.00 0.14 0.00 60 1005.3
20260903195455 57 352 2.0 4.0 0.00 0.14 0.00 62 1005.3
20260903195352 57 352 1.0 4.0 0.00 0.14 0.00 62 1005.3
20260903195257 57 352 1.0 4.0 0.00 0.14 0.00 61 1005.3
20260903195200 57 352 1.0 4.0 0.00 0.14 0.00 62 1005.3
20260903195056 57 352 1.0 5.0 0.00 0.14 0.00 61 1005.4
20260903195021 57 352 1.0 5.0 0.00 0.14 0.00 62 1005.4
20260903194926 57 352 1.0 5.0 0.00 0.14 0.00 61 1005.4
20260903194810 57 351 1.0 5.0 0.00 0.14 0.00 61 1005.4
20260903194708 56 351 2.0 5.0 0.00 0.14 0.00 63 1005.4
20260903194449 56 351 2.0 5.0 0.00 0.14 0.00 63 1005.4
20260903194347 56 351 3.0 5.0 0.00 0.14 0.00 63 1005.5
20260903194249 56 350 3.0 5.0 0.00 0.14 0.00 63 1005.5
20260903194155 56 350 2.0 4.0 0.00 0.14 0.00 63 1005.5
20260903194050 56 350 2.0 3.0 0.00 0.14 0.00 62 1005.5
20260903193957 56 350 2.0 3.0 0.00 0.14 0.00 63 1005.5
20260903193854 56 350 1.0 4.0 0.00 0.14 0.00 63 1005.6
20260903193820 56 350 1.0 4.0 0.00 0.14 0.00 63 1005.6
20260903193656 56 349 1.0 4.0 0.00 0.14 0.00 63 1005.5
20260903193606 56 349 1.0 4.0 0.00 0.14 0.00 62 1005.5
20260903193441 56 349 1.0 5.0 0.00 0.14 0.00 62 1005.6
20260903193339 56 349 1.0 5.0 0.00 0.14 0.00 63 1005.6
20260903193305 56 349 1.0 5.0 0.00 0.14 0.00 61 1005.6
20260903193212 56 349 2.0 5.0 0.00 0.14 0.00 61 1005.6
20260903193047 56 349 2.0 5.0 0.00 0.14 0.00 61 1005.6
20260903192952 56 349 1.0 5.0 0.00 0.14 0.00 62 1005.6
20260903192849 56 349 1.0 5.0 0.00 0.14 0.00 63 1005.6
20260903192740 56 349 2.0 5.0 0.00 0.14 0.00 63 1005.7
20260903192659 56 349 2.0 5.0 0.00 0.14 0.00 63 1005.7
20260903192541 56 349 1.0 5.0 0.00 0.14 0.00 62 1005.7
20260903192439 56 348 1.0 5.0 0.00 0.14 0.00 63 1005.7
20260903192345 56 348 2.0 5.0 0.00 0.14 0.00 63 1005.7
20260903192241 56 348 2.0 5.0 0.00 0.14 0.00 63 1005.7
20260903192154 56 346 1.0 4.0 0.00 0.14 0.00 64 1005.7
20260903192047 56 346 2.0 5.0 0.00 0.14 0.00 64 1005.7
20260903191944 56 346 2.0 5.0 0.00 0.14 0.00 63 1005.6
20260903191850 56 346 2.0 5.0 0.00 0.14 0.00 64 1005.6
20260903191748 56 346 1.0 5.0 0.00 0.14 0.00 63 1005.7
20260903191716 56 346 2.0 5.0 0.00 0.14 0.00 64 1005.6
20260903191557 56 346 1.0 5.0 0.00 0.14 0.00 65 1005.7
20260903191454 56 346 2.0 5.0 0.00 0.14 0.00 66 1005.6
20260903191404 56 346 3.0 5.0 0.00 0.14 0.00 66 1005.6
20260903191316 56 346 3.0 5.0 0.00 0.14 0.00 65 1005.6
20260903191155 56 345 1.0 4.0 0.00 0.14 0.00 63 1005.6
20260903191120 56 346 1.0 4.0 0.00 0.14 0.00 63 1005.5
20260903190957 56 346 1.0 4.0 0.00 0.14 0.00 64 1005.6
20260903190924 56 346 2.0 4.0 0.00 0.14 0.00 65 1005.6
20260903190739 56 346 3.0 6.0 0.00 0.14 0.00 65 1005.6
20260903190643 56 346 3.0 6.0 0.00 0.14 0.00 65 1005.6
20260903190547 56 346 3.0 6.0 0.00 0.14 0.00 65 1005.6
20260903190442 56 346 3.0 6.0 0.00 0.14 0.00 66 1005.6
20260903190349 56 346 2.0 6.0 0.00 0.14 0.00 66 1005.6
20260903190257 55 346 1.0 6.0 0.00 0.14 0.00 66 1005.6
20260903190152 55 346 2.0 6.0 0.00 0.14 0.00 66 1005.7
20260903190106 55 346 3.0 6.0 0.00 0.14 0.00 65 1005.7
20260903185955 55 346 3.0 6.0 0.00 0.14 0.00 65 1005.7
20260903185921 55 346 3.0 6.0 0.00 0.14 0.00 65 1005.7
20260903185758 55 346 2.0 5.0 0.00 0.14 0.00 65 1005.7
20260903185704 55 346 1.0 5.0 0.00 0.14 0.00 65 1005.7
20260903185540 55 346 2.0 5.0 0.00 0.14 0.00 65 1005.7
20260903185458 55 346 3.0 5.0 0.00 0.14 0.00 66 1005.7
20260903185405 55 346 3.0 5.0 0.00 0.14 0.00 66 1005.7
20260903185245 55 348 3.0 5.0 0.00 0.14 0.00 66 1005.7
20260903185145 55 348 4.0 5.0 0.00 0.14 0.00 66 1005.7
20260903185050 55 350 3.0 6.0 0.00 0.14 0.00 66 1005.7
20260903184948 55 356 2.0 6.0 0.00 0.14 0.00 66 1005.8
20260903184914 55 356 2.0 6.0 0.00 0.14 0.00 65 1005.8
20260903184749 55 357 3.0 6.0 0.00 0.14 0.00 64 1005.8
20260903184641 55 357 3.0 6.0 0.00 0.14 0.00 65 1005.8
20260903184557 55 357 3.0 6.0 0.00 0.14 0.00 65 1005.9
20260903184505 55 357 3.0 6.0 0.00 0.14 0.00 65 1005.9
20260903184342 55 357 3.0 6.0 0.00 0.14 0.00 67 1005.8
20260903184240 55 358 3.0 6.0 0.00 0.14 0.00 68 1005.8
20260903184148 55 5 3.0 6.0 0.00 0.14 0.00 67 1005.8
20260903184042 55 5 3.0 6.0 0.00 0.14 0.00 66 1005.8
20260903183952 55 5 3.0 6.0 0.00 0.14 0.00 66 1005.8
20260903183849 55 5 3.0 6.0 0.00 0.14 0.00 66 1005.9
20260903183747 55 5 3.0 6.0 0.00 0.14 0.00 66 1005.9
20260903183655 55 5 4.0 6.0 0.00 0.14 0.00 66 1005.9
20260903183619 55 5 3.0 6.0 0.00 0.14 0.00 67 1006.0
20260903183516 55 129 2.0 6.0 0.00 0.14 0.00 67 1005.9
20260903183402 55 131 3.0 6.0 0.00 0.14 0.00 68 1006.0
20260903183240 55 131 1.0 5.0 0.00 0.14 0.00 67 1006.0
20260903183147 55 140 0.0 4.0 0.00 0.14 0.00 67 1006.0
20260903183059 55 140 0.0 4.0 0.00 0.14 0.00 67 1006.0
20260903183005 55 140 0.0 4.0 0.00 0.14 0.00 68 1006.0
20260903182842 55 140 1.0 4.0 0.00 0.14 0.00 67 1006.0
20260903182740 55 140 1.0 4.0 0.00 0.14 0.00 67 1006.0
20260903182648 54 140 1.0 4.0 0.00 0.14 0.00 66 1006.0
20260903182554 54 140 2.0 4.0 0.00 0.14 0.00 67 1005.9
20260903182449 54 140 1.0 4.0 0.00 0.14 0.00 67 1005.9
20260903182354 54 140 1.0 3.0 0.00 0.14 0.00 68 1005.9
20260903182252 54 140 0.0 3.0 0.00 0.14 0.00 68 1005.9
20260903182220 54 140 0.0 3.0 0.00 0.14 0.00 68 1005.9
20260903182053 54 140 1.0 3.0 0.00 0.14 0.00 68 1005.9
20260903181958 54 140 1.0 4.0 0.00 0.14 0.00 68 1005.9
20260903181904 54 140 1.0 7.0 0.00 0.14 0.00 69 1005.9
20260903181744 54 141 2.0 7.0 0.00 0.14 0.00 70 1005.9
20260903181643 54 141 2.0 7.0 0.00 0.14 0.00 69 1005.9
20260903181547 54 141 2.0 7.0 0.00 0.14 0.00 67 1005.8
20260903181445 54 141 2.0 7.0 0.00 0.14 0.00 68 1005.9
20260903181352 54 140 2.0 7.0 0.00 0.14 0.00 67 1005.9
20260903181250 54 140 3.0 7.0 0.00 0.14 0.00 67 1005.9
20260903181154 54 140 3.0 7.0 0.00 0.14 0.00 68 1005.9
20260903181119 54 139 3.0 7.0 0.00 0.14 0.00 69 1005.9
20260903181004 54 137 2.0 4.0 0.00 0.14 0.00 68 1005.9
20260903180840 54 137 2.0 4.0 0.00 0.14 0.00 68 1005.9
20260903180758 54 137 2.0 4.0 0.00 0.14 0.00 68 1005.9
20260903180646 54 137 2.0 4.0 0.00 0.14 0.00 68 1005.9
20260903180540 54 137 1.0 4.0 0.00 0.14 0.00 69 1006.0
20260903180449 54 137 2.0 4.0 0.00 0.14 0.00 69 1006.0
20260903180344 54 137 2.0 4.0 0.00 0.14 0.00 69 1006.0
20260903180300 54 137 2.0 4.0 0.00 0.14 0.00 70 1006.0
20260903180146 54 137 2.0 4.0 0.00 0.14 0.00 69 1006.0
20260903180050 53 137 1.0 4.0 0.00 0.14 0.00 69 1006.0
20260903180006 53 138 0.0 3.0 0.00 0.14 0.00 68 1006.1
20260903175850 53 138 1.0 3.0 0.00 0.14 0.00 68 1006.1
20260903175752 53 138 1.0 3.0 0.00 0.14 0.00 69 1006.1
20260903175656 53 138 1.0 3.0 0.00 0.14 0.00 69 1006.1
20260903175612 53 138 1.0 3.0 0.00 0.14 0.00 69 1006.1
20260903175457 53 139 1.0 3.0 0.00 0.14 0.00 69 1006.1
20260903175354 53 138 1.0 2.0 0.00 0.14 0.00 69 1006.1
20260903175300 53 138 0.0 3.0 0.00 0.14 0.00 68 1006.1
20260903175208 53 138 0.0 3.0 0.00 0.14 0.00 69 1006.1
20260903175043 53 139 0.0 3.0 0.00 0.14 0.00 70 1006.2
20260903174941 53 138 0.0 3.0 0.00 0.14 0.00 70 1006.1
20260903174847 53 139 0.0 3.0 0.00 0.14 0.00 70 1006.1
20260903174804 53 138 0.0 3.0 0.00 0.14 0.00 69 1006.1
20260903174731 53 139 0.0 4.0 0.00 0.14 0.00 69 1006.1
20260903174608 53 138 1.0 4.0 0.00 0.14 0.00 71 1006.1
20260903174514 53 139 2.0 4.0 0.00 0.14 0.00 71 1006.1
20260903174411 53 139 2.0 4.0 0.00 0.14 0.00 72 1006.0
20260903174256 53 138 2.0 7.0 0.00 0.14 0.00 72 1006.0
20260903174202 53 138 2.0 7.0 0.00 0.14 0.00 72 1006.0
20260903174043 53 139 1.0 7.0 0.00 0.14 0.00 72 1006.0
20260903173940 53 139 1.0 7.0 0.00 0.14 0.00 72 1006.0
20260903173847 53 139 2.0 7.0 0.00 0.14 0.00 72 1006.0
20260903173804 53 139 1.0 7.0 0.00 0.14 0.00 72 1006.0
20260903173710 53 139 1.0 7.0 0.00 0.14 0.00 72 1006.0
20260903173554 53 139 3.0 7.0 0.00 0.14 0.00 72 1006.0
20260903173449 53 139 2.0 7.0 0.00 0.14 0.00 73 1006.0
20260903173359 53 138 1.0 7.0 0.00 0.14 0.00 73 1006.0
20260903173257 53 136 1.0 6.0 0.00 0.14 0.00 73 1006.0
20260903173206 53 136 1.0 6.0 0.00 0.14 0.00 73 1006.0
20260903173102 53 136 1.0 6.0 0.00 0.14 0.00 73 1006.0
20260903173008 53 136 2.0 6.0 0.00 0.14 0.00 72 1005.9
20260903172844 53 136 3.0 6.0 0.00 0.14 0.00 73 1005.9
20260903172811 53 136 3.0 6.0 0.00 0.14 0.00 73 1005.9
20260903172658 53 136 3.0 6.0 0.00 0.14 0.00 73 1006.0
20260903172622 53 136 3.0 6.0 0.00 0.14 0.00 73 1006.0
20260903172501 52 136 3.0 6.0 0.00 0.14 0.00 73 1006.0
20260903172405 52 136 4.0 6.0 0.00 0.14 0.00 73 1006.0
20260903172242 52 136 4.0 6.0 0.00 0.14 0.00 73 1006.0
20260903172150 52 132 3.0 5.0 0.00 0.14 0.00 73 1006.0
20260903172114 52 131 2.0 4.0 0.00 0.14 0.00 73 1006.0
20260903172011 52 131 2.0 4.0 0.00 0.14 0.00 73 1006.0
20260903171856 52 131 2.0 4.0 0.00 0.14 0.00 73 1006.1
20260903171754 52 131 2.0 4.0 0.00 0.14 0.00 73 1006.1
20260903171704 52 131 2.0 4.0 0.00 0.14 0.00 74 1006.1
20260903171539 52 131 2.0 4.0 0.00 0.14 0.00 75 1006.1
20260903171506 52 131 3.0 4.0 0.00 0.14 0.00 75 1006.1
20260903171342 52 131 3.0 7.0 0.00 0.14 0.00 74 1006.1
20260903171239 52 131 3.0 7.0 0.00 0.14 0.00 73 1006.0
20260903171206 52 131 2.0 7.0 0.00 0.14 0.00 73 1006.0
20260903171043 52 131 1.0 7.0 0.00 0.14 0.00 72 1006.0
20260903170947 52 131 1.0 7.0 0.00 0.14 0.00 72 1006.0
20260903170845 52 131 2.0 7.0 0.00 0.14 0.00 73 1006.0
20260903170749 52 131 3.0 7.0 0.00 0.14 0.00 73 1006.0
20260903170655 52 131 3.0 7.0 0.00 0.14 0.00 74 1006.0
20260903170550 52 131 3.0 7.0 0.00 0.14 0.00 74 1005.9
20260903170448 52 131 2.0 6.0 0.00 0.14 0.00 74 1005.9
20260903170353 52 131 3.0 6.0 0.00 0.14 0.00 74 1006.0
20260903170304 52 131 3.0 6.0 0.00 0.14 0.00 74 1006.0
20260903170158 52 131 2.0 6.0 0.00 0.14 0.00 74 1006.0
20260903170123 52 131 1.0 6.0 0.00 0.14 0.00 73 1006.0
20260903165957 52 131 2.0 6.0 0.00 0.14 0.00 73 1006.0
20260903165854 52 131 3.0 6.0 0.00 0.14 0.00 73 1006.0
20260903165758 52 131 3.0 6.0 0.00 0.14 0.00 74 1006.0
20260903165706 52 131 3.0 6.0 0.00 0.14 0.00 74 1006.0
20260903165542 52 131 3.0 6.0 0.00 0.14 0.00 74 1006.0
20260903165440 52 131 2.0 6.0 0.00 0.14 0.00 75 1006.0
20260903165347 52 131 3.0 6.0 0.00 0.14 0.00 74 1006.0
20260903165244 52 131 4.0 6.0 0.00 0.14 0.00 74 1006.0
20260903165143 52 131 3.0 6.0 0.00 0.14 0.00 73 1006.0
20260903165047 52 131 2.0 6.0 0.00 0.14 0.00 73 1005.9
20260903164949 52 131 3.0 6.0 0.00 0.14 0.00 73 1006.0
20260903164855 52 131 3.0 6.0 0.00 0.14 0.00 73 1005.9
20260903164800 52 131 3.0 6.0 0.00 0.14 0.00 73 1006.0
20260903164658 52 129 2.0 6.0 0.00 0.14 0.00 74 1006.0
20260903164553 52 129 2.0 6.0 0.00 0.14 0.00 74 1006.0
20260903164458 52 129 3.0 6.0 0.00 0.14 0.00 74 1006.0
20260903164350 52 129 3.0 6.0 0.00 0.14 0.00 74 1006.0
20260903164241 52 129 3.0 4.0 0.00 0.14 0.00 75 1006.0
20260903164153 52 129 3.0 4.0 0.00 0.14 0.00 75 1006.0
20260903164116 52 129 2.0 4.0 0.00 0.14 0.00 75 1006.0
20260903163953 52 129 2.0 6.0 0.00 0.14 0.00 75 1006.1
20260903163859 52 129 2.0 6.0 0.00 0.14 0.00 75 1006.0
20260903163757 52 129 2.0 6.0 0.00 0.14 0.00 75 1005.9
20260903163725 52 129 2.0 6.0 0.00 0.14 0.00 75 1005.9
20260903163539 52 129 2.0 6.0 0.00 0.14 0.00 75 1005.9
20260903163439 52 129 2.0 6.0 0.00 0.14 0.00 75 1005.8
20260903163406 52 129 3.0 6.0 0.00 0.14 0.00 75 1005.9
20260903163243 52 129 3.0 6.0 0.00 0.14 0.00 76 1005.8
20260903163151 52 129 3.0 6.0 0.00 0.14 0.00 76 1005.8
20260903163116 52 129 3.0 6.0 0.00 0.14 0.00 76 1005.8
20260903162952 52 129 4.0 6.0 0.00 0.14 0.00 76 1005.8
20260903162918 52 129 4.0 6.0 0.00 0.14 0.00 76 1005.9
20260903162755 52 129 3.0 6.0 0.00 0.14 0.00 76 1005.9
20260903162707 52 128 2.0 4.0 0.00 0.14 0.00 76 1005.9
20260903162603 51 127 2.0 4.0 0.00 0.14 0.00 76 1005.9
20260903162509 51 127 3.0 6.0 0.00 0.14 0.00 76 1005.8
20260903162345 51 127 3.0 6.0 0.00 0.14 0.00 76 1005.8
20260903162252 51 127 3.0 6.0 0.00 0.14 0.00 76 1005.8
20260903162218 51 126 3.0 7.0 0.00 0.14 0.00 76 1005.8
20260903162051 51 126 3.0 7.0 0.00 0.14 0.00 76 1005.7
20260903161947 51 126 3.0 7.0 0.00 0.14 0.00 76 1005.7
20260903161856 51 126 3.0 7.0 0.00 0.14 0.00 76 1005.8
20260903161802 51 126 3.0 7.0 0.00 0.14 0.00 76 1005.7
20260903161639 51 126 3.0 7.0 0.00 0.14 0.00 76 1005.8
20260903161609 51 126 3.0 7.0 0.00 0.14 0.00 77 1005.8
20260903161444 51 126 3.0 8.0 0.00 0.14 0.00 77 1005.8
20260903161340 51 127 3.0 8.0 0.00 0.14 0.00 77 1005.9
20260903161242 51 127 3.0 8.0 0.00 0.14 0.00 76 1005.8
20260903161147 51 127 4.0 8.0 0.00 0.14 0.00 77 1005.8
20260903161042 51 127 5.0 8.0 0.00 0.14 0.00 77 1005.8
20260903160949 51 126 5.0 8.0 0.00 0.14 0.00 77 1005.9
20260903160846 51 127 4.0 8.0 0.00 0.14 0.00 78 1005.8
20260903160812 51 127 5.0 8.0 0.00 0.14 0.00 78 1005.8
20260903160649 51 128 4.0 8.0 0.00 0.14 0.00 79 1005.9
20260903160557 51 127 3.0 6.0 0.00 0.14 0.00 79 1005.9
20260903160454 51 128 2.0 4.0 0.00 0.14 0.00 78 1005.9
20260903160401 50 128 2.0 4.0 0.00 0.14 0.00 78 1006.0
20260903160337 50 128 2.0 4.0 0.00 0.14 0.00 79 1006.0
20260903160143 50 128 2.0 3.0 0.00 0.14 0.00 80 1006.0
20260903160039 50 128 2.0 6.0 0.00 0.14 0.00 80 1006.1
20260903155945 50 128 2.0 6.0 0.00 0.14 0.00 80 1006.1
20260903155844 50 128 2.0 6.0 0.00 0.14 0.00 80 1006.1
20260903155750 50 128 2.0 6.0 0.00 0.14 0.00 80 1006.1
20260903155716 50 128 2.0 6.0 0.00 0.14 0.00 80 1006.1
20260903155551 50 128 1.0 6.0 0.00 0.14 0.00 80 1006.0
20260903155516 50 128 2.0 6.0 0.00 0.14 0.00 80 1006.0
20260903155352 50 128 3.0 6.0 0.00 0.14 0.00 80 1006.1
20260903155259 50 128 3.0 6.0 0.00 0.14 0.00 80 1006.1
20260903155141 49 127 3.0 7.0 0.00 0.14 0.00 80 1006.1
20260903155107 49 127 2.0 7.0 0.00 0.14 0.00 80 1006.1
20260903155002 49 127 2.0 7.0 0.00 0.14 0.00 80 1006.1
20260903154906 49 127 2.0 7.0 0.00 0.14 0.00 81 1006.1
20260903154743 49 127 2.0 7.0 0.00 0.14 0.00 81 1006.1
20260903154640 49 127 3.0 7.0 0.00 0.14 0.00 81 1006.0
20260903154608 49 126 3.0 7.0 0.00 0.14 0.00 81 1006.0
20260903154447 49 125 3.0 7.0 0.00 0.14 0.00 81 1006.0
20260903154342 49 125 4.0 7.0 0.00 0.14 0.00 82 1006.1
20260903154248 48 125 4.0 7.0 0.00 0.14 0.00 82 1006.1
20260903154147 48 123 3.0 6.0 0.00 0.14 0.00 82 1006.1
20260903154051 48 123 2.0 6.0 0.00 0.14 0.00 83 1006.1
20260903153948 48 123 2.0 6.0 0.00 0.14 0.00 83 1006.1
20260903153854 48 123 2.0 6.0 0.00 0.14 0.00 83 1006.1
20260903153814 48 123 3.0 6.0 0.00 0.14 0.00 84 1006.1
20260903153702 48 123 3.0 6.0 0.00 0.14 0.00 84 1006.1
20260903153556 48 122 4.0 6.0 0.00 0.14 0.00 84 1006.0
20260903153502 48 122 3.0 6.0 0.00 0.14 0.00 85 1006.0
20260903153359 48 122 3.0 4.0 0.00 0.14 0.00 85 1006.0
20260903153304 47 122 3.0 4.0 0.00 0.14 0.00 85 1006.0
20260903153144 47 121 2.0 4.0 0.00 0.14 0.00 85 1006.0
20260903153043 47 121 1.0 3.0 0.00 0.14 0.00 85 1006.0
20260903152950 47 121 1.0 3.0 0.00 0.14 0.00 85 1006.0
20260903152848 47 121 1.0 3.0 0.00 0.14 0.00 86 1006.0
20260903152753 47 121 1.0 3.0 0.00 0.14 0.00 86 1006.0
20260903152649 47 121 1.0 2.0 0.00 0.14 0.00 86 1006.0
20260903152551 47 121 1.0 4.0 0.00 0.14 0.00 86 1006.0
20260903152448 47 121 1.0 4.0 0.00 0.14 0.00 86 1006.0
20260903152356 47 121 0.0 4.0 0.00 0.14 0.00 86 1006.0
20260903152253 47 121 0.0 4.0 0.00 0.14 0.00 86 1006.0
20260903152220 47 121 0.0 4.0 0.00 0.14 0.00 86 1006.0
20260903152123 47 121 0.0 4.0 0.00 0.14 0.00 86 1006.0
20260903151958 47 121 0.0 4.0 0.00 0.14 0.00 86 1006.0
20260903151855 47 121 1.0 4.0 0.00 0.14 0.00 86 1006.0
20260903151801 47 121 1.0 4.0 0.00 0.14 0.00 86 1006.0
20260903151643 47 121 1.0 2.0 0.00 0.14 0.00 86 1006.0
20260903151538 47 121 1.0 2.0 0.00 0.14 0.00 86 1006.0
20260903151443 47 121 1.0 2.0 0.00 0.14 0.00 86 1006.0
20260903151349 47 121 1.0 2.0 0.00 0.14 0.00 86 1006.0
20260903151246 47 121 0.0 2.0 0.00 0.14 0.00 86 1006.0
20260903151146 47 121 0.0 2.0 0.00 0.14 0.00 86 1006.0
20260903151044 47 121 0.0 2.0 0.00 0.14 0.00 85 1006.1
20260903151014 47 121 0.0 2.0 0.00 0.14 0.00 85 1006.1
20260903150850 47 121 0.0 2.0 0.00 0.14 0.00 85 1006.1
20260903150756 47 121 0.0 2.0 0.00 0.14 0.00 85 1006.1
20260903150655 47 121 0.0 2.0 0.00 0.14 0.00 85 1006.1
20260903150559 46 121 0.0 0.0 0.00 0.14 0.00 85 1006.1
20260903150456 46 121 0.0 0.0 0.00 0.14 0.00 85 1006.1
20260903150353 46 121 0.0 1.0 0.00 0.14 0.00 85 1006.1
20260903150255 46 121 0.0 2.0 0.00 0.14 0.00 85 1006.1
20260903150150 46 121 0.0 3.0 0.00 0.14 0.00 85 1006.1
20260903150045 47 121 0.0 3.0 0.00 0.14 0.00 85 1006.1
20260903145943 46 121 0.0 3.0 0.00 0.14 0.00 85 1006.1
20260903145849 46 121 0.0 3.0 0.00 0.14 0.00 85 1006.1
20260903145746 46 121 0.0 3.0 0.00 0.14 0.00 85 1006.1
20260903145654 46 121 0.0 3.0 0.00 0.14 0.00 85 1006.1
20260903145554 46 121 0.0 3.0 0.00 0.14 0.00 85 1006.1
20260903145501 46 121 1.0 3.0 0.00 0.14 0.00 84 1006.1
20260903145418 46 121 2.0 3.0 0.00 0.14 0.00 84 1006.1
20260903145306 46 121 2.0 3.0 0.00 0.14 0.00 84 1006.1
20260903145143 46 121 1.0 2.0 0.00 0.14 0.00 84 1006.1
20260903145038 46 121 1.0 2.0 0.00 0.14 0.00 84 1006.1
20260903145003 46 121 1.0 2.0 0.00 0.14 0.00 84 1006.1
20260903144913 46 121 0.0 2.0 0.00 0.14 0.00 84 1006.1
20260903144748 46 121 0.0 2.0 0.00 0.14 0.00 84 1006.1
20260903144655 46 121 0.0 4.0 0.00 0.14 0.00 84 1006.0
20260903144551 46 121 0.0 4.0 0.00 0.14 0.00 84 1006.0
20260903144518 46 121 0.0 4.0 0.00 0.14 0.00 83 1005.9
20260903144353 46 121 0.0 4.0 0.00 0.14 0.00 84 1005.9
20260903144259 46 121 0.0 4.0 0.00 0.14 0.00 83 1005.9
20260903144140 46 121 1.0 4.0 0.00 0.14 0.00 83 1005.9
20260903144109 46 121 1.0 4.0 0.00 0.14 0.00 83 1005.9
20260903143945 46 121 1.0 4.0 0.00 0.14 0.00 83 1005.9
20260903143841 46 121 1.0 4.0 0.00 0.14 0.00 83 1005.8
20260903143807 46 121 0.0 2.0 0.00 0.14 0.00 83 1005.8
20260903143653 46 121 0.0 2.0 0.00 0.14 0.00 83 1005.9
20260903143618 46 121 0.0 2.0 0.00 0.14 0.00 83 1005.9
20260903143452 46 121 0.0 2.0 0.00 0.14 0.00 83 1005.8
20260903143402 46 121 0.0 2.0 0.00 0.14 0.00 83 1005.9
20260903143239 46 121 0.0 2.0 0.00 0.14 0.00 82 1005.9
20260903143205 46 121 0.0 2.0 0.00 0.14 0.00 82 1005.9
20260903143057 46 121 1.0 2.0 0.00 0.14 0.00 82 1005.9
20260903143004 46 121 1.0 2.0 0.00 0.14 0.00 82 1005.9
20260903142840 46 121 1.0 2.0 0.00 0.14 0.00 82 1005.9
20260903142806 46 121 0.0 2.0 0.00 0.14 0.00 82 1005.9
20260903142648 46 121 0.0 2.0 0.00 0.14 0.00 82 1005.9
20260903142544 46 121 0.0 2.0 0.00 0.14 0.00 82 1005.9
20260903142449 46 121 1.0 2.0 0.00 0.14 0.00 82 1005.9
20260903142347 46 121 1.0 2.0 0.00 0.14 0.00 82 1005.9
20260903142252 47 121 1.0 2.0 0.00 0.14 0.00 82 1005.9
20260903142150 46 121 1.0 2.0 0.00 0.14 0.00 82 1005.9
20260903142056 47 121 1.0 2.0 0.00 0.14 0.00 82 1005.9
20260903142018 46 121 0.0 2.0 0.00 0.14 0.00 82 1005.9
20260903141902 47 121 0.0 2.0 0.00 0.14 0.00 82 1005.9
20260903141807 47 121 0.0 2.0 0.00 0.14 0.00 82 1005.9
20260903141645 47 121 0.0 3.0 0.00 0.14 0.00 82 1005.9
20260903141610 47 121 0.0 4.0 0.00 0.14 0.00 82 1005.9
20260903141447 47 121 0.0 6.0 0.00 0.14 0.00 82 1005.9
20260903141344 47 121 0.0 6.0 0.00 0.14 0.00 82 1005.9
20260903141254 47 121 1.0 6.0 0.00 0.14 0.00 82 1005.9
20260903141222 47 121 1.0 6.0 0.00 0.14 0.00 82 1005.9
20260903141057 47 121 1.0 6.0 0.00 0.14 0.00 82 1005.9
20260903141022 47 121 2.0 6.0 0.00 0.14 0.00 82 1005.9
20260903140857 47 121 3.0 6.0 0.00 0.14 0.00 81 1005.9
20260903140802 47 121 3.0 6.0 0.00 0.14 0.00 81 1005.9
20260903140700 47 121 3.0 6.0 0.00 0.14 0.00 81 1005.9
20260903140602 47 121 4.0 6.0 0.00 0.14 0.00 81 1005.9
20260903140444 47 121 4.0 6.0 0.00 0.14 0.00 81 1005.9
20260903140410 47 121 4.0 6.0 0.00 0.14 0.00 81 1005.9
20260903140327 47 121 3.0 6.0 0.00 0.14 0.00 81 1005.9
20260903140150 47 121 3.0 4.0 0.00 0.14 0.00 81 1005.9
20260903140054 47 121 2.0 4.0 0.00 0.14 0.00 81 1005.9
20260903135951 47 121 0.0 4.0 0.00 0.14 0.00 80 1005.8
20260903135857 47 121 0.0 0.0 0.00 0.14 0.00 80 1005.8
20260903135739 47 121 0.0 0.0 0.00 0.14 0.00 80 1005.8
20260903135706 47 121 0.0 0.0 0.00 0.14 0.00 80 1005.8
20260903135542 47 121 0.0 1.0 0.00 0.14 0.00 80 1005.8
20260903135439 47 121 0.0 2.0 0.00 0.14 0.00 80 1005.8
20260903135405 47 121 0.0 2.0 0.00 0.14 0.00 79 1005.9
20260903135310 47 121 0.0 2.0 0.00 0.14 0.00 79 1005.9
20260903135149 47 121 0.0 2.0 0.00 0.14 0.00 79 1005.8
20260903135043 47 121 0.0 2.0 0.00 0.14 0.00 79 1005.9
20260903134952 47 121 0.0 3.0 0.00 0.14 0.00 79 1005.9
20260903134857 47 121 0.0 3.0 0.00 0.14 0.00 78 1005.9
20260903134755 47 121 1.0 3.0 0.00 0.14 0.00 78 1005.9
20260903134700 47 121 1.0 3.0 0.00 0.14 0.00 78 1005.9
20260903134608 47 121 1.0 3.0 0.00 0.14 0.00 78 1005.9
20260903134444 47 121 1.0 7.0 0.00 0.14 0.00 78 1005.9
20260903134342 47 121 1.0 7.0 0.00 0.14 0.00 78 1005.9
20260903134252 47 121 1.0 7.0 0.00 0.14 0.00 79 1005.8
20260903134149 47 121 2.0 7.0 0.00 0.14 0.00 79 1005.8
20260903134053 47 121 1.0 7.0 0.00 0.14 0.00 79 1005.7
20260903133949 47 121 0.0 7.0 0.00 0.14 0.00 79 1005.7
20260903133848 48 121 0.0 7.0 0.00 0.14 0.00 78 1005.7
20260903133753 48 121 1.0 7.0 0.00 0.14 0.00 78 1005.7
20260903133659 48 121 2.0 7.0 0.00 0.14 0.00 78 1005.7
20260903133538 48 121 3.0 8.0 0.00 0.14 0.00 78 1005.7
20260903133455 48 121 4.0 8.0 0.00 0.14 0.00 78 1005.7
20260903133402 48 121 4.0 8.0 0.00 0.14 0.00 78 1005.7
20260903133239 48 121 4.0 8.0 0.00 0.14 0.00 77 1005.8
20260903133207 48 121 4.0 8.0 0.00 0.14 0.00 77 1005.8
20260903133043 48 121 4.0 8.0 0.00 0.14 0.00 76 1005.7
20260903133000 48 121 4.0 8.0 0.00 0.14 0.00 76 1005.7
20260903132849 48 121 5.0 8.0 0.00 0.14 0.00 76 1005.7
20260903132745 48 121 5.0 8.0 0.00 0.14 0.00 76 1005.7
20260903132653 48 120 5.0 8.0 0.00 0.14 0.00 75 1005.7
20260903132549 48 121 5.0 8.0 0.00 0.14 0.00 75 1005.7
20260903132454 48 118 5.0 7.0 0.00 0.14 0.00 75 1005.7
20260903132352 48 111 5.0 7.0 0.00 0.14 0.00 75 1005.7
20260903132306 48 111 5.0 8.0 0.00 0.14 0.00 74 1005.7
20260903132141 48 110 5.0 8.0 0.00 0.14 0.00 74 1005.7
20260903132058 48 110 4.0 8.0 0.00 0.14 0.00 73 1005.7
20260903132005 48 110 5.0 8.0 0.00 0.14 0.00 73 1005.7
20260903131840 48 111 5.0 8.0 0.00 0.14 0.00 73 1005.7
20260903131807 48 111 5.0 8.0 0.00 0.14 0.00 72 1005.7
20260903131649 48 115 5.0 8.0 0.00 0.14 0.00 72 1005.7
20260903131544 48 116 5.0 8.0 0.00 0.14 0.00 72 1005.7
20260903131450 47 116 4.0 8.0 0.00 0.14 0.00 72 1005.7
20260903131417 47 128 3.0 8.0 0.00 0.14 0.00 73 1005.7
20260903131251 47 135 3.0 8.0 0.00 0.14 0.00 73 1005.7
20260903131150 47 135 4.0 8.0 0.00 0.14 0.00 73 1005.7
20260903131055 47 135 4.0 8.0 0.00 0.14 0.00 73 1005.7
20260903130956 47 138 4.0 8.0 0.00 0.14 0.00 73 1005.7
20260903130901 47 175 3.0 7.0 0.00 0.14 0.00 73 1005.7
20260903130817 47 175 2.0 7.0 0.00 0.14 0.00 73 1005.7
20260903130701 47 175 3.0 7.0 0.00 0.14 0.00 73 1005.7
20260903130629 47 175 4.0 7.0 0.00 0.14 0.00 74 1005.7
20260903130445 47 175 4.0 7.0 0.00 0.14 0.00 74 1005.7
20260903130403 47 176 4.0 7.0 0.00 0.14 0.00 75 1005.7
20260903130257 47 175 4.0 7.0 0.00 0.14 0.00 75 1005.7
20260903130213 47 176 3.0 7.0 0.00 0.14 0.00 75 1005.7
20260903130120 47 178 2.0 6.0 0.00 0.14 0.00 75 1005.6
20260903130005 47 178 3.0 6.0 0.00 0.14 0.00 75 1005.6
20260903125902 46 178 4.0 6.0 0.00 0.14 0.00 75 1005.7
20260903125748 46 177 4.0 6.0 0.00 0.14 0.00 75 1005.6
20260903125647 46 177 4.0 6.0 0.00 0.14 0.00 76 1005.7
20260903125543 46 177 4.0 6.0 0.00 0.14 0.00 76 1005.6
20260903125510 46 177 4.0 6.0 0.00 0.14 0.00 76 1005.6
20260903125415 46 177 3.0 6.0 0.00 0.14 0.00 77 1005.7
20260903125306 46 261 1.0 3.0 0.00 0.14 0.00 77 1005.7
20260903125143 46 262 2.0 3.0 0.00 0.14 0.00 77 1005.7
20260903125047 46 262 3.0 3.0 0.00 0.14 0.00 78 1005.7
20260903125002 46 262 3.0 3.0 0.00 0.14 0.00 78 1005.7
20260903124848 46 262 3.0 3.0 0.00 0.14 0.00 78 1005.7
20260903124745 46 262 2.0 3.0 0.00 0.14 0.00 78 1005.6
20260903124653 46 262 2.0 4.0 0.00 0.14 0.00 78 1005.6
20260903124618 46 262 2.0 4.0 0.00 0.14 0.00 78 1005.6
20260903124439 45 262 1.0 5.0 0.00 0.14 0.00 79 1005.6
20260903124404 45 262 1.0 5.0 0.00 0.14 0.00 79 1005.6
20260903124241 45 262 1.0 5.0 0.00 0.14 0.00 79 1005.5
20260903124139 45 262 1.0 5.0 0.00 0.14 0.00 80 1005.6
20260903124106 45 262 1.0 5.0 0.00 0.14 0.00 80 1005.6
20260903123941 45 262 2.0 5.0 0.00 0.14 0.00 80 1005.6
20260903123845 45 262 3.0 5.0 0.00 0.14 0.00 80 1005.5
20260903123746 45 262 3.0 5.0 0.00 0.14 0.00 80 1005.6
20260903123655 45 262 3.0 5.0 0.00 0.14 0.00 80 1005.6
20260903123550 45 264 2.0 5.0 0.00 0.14 0.00 81 1005.6
20260903123517 45 260 1.0 5.0 0.00 0.14 0.00 81 1005.6
20260903123354 45 223 0.0 3.0 0.00 0.14 0.00 81 1005.6
20260903123300 46 223 0.0 3.0 0.00 0.14 0.00 81 1005.6
20260903123158 46 223 0.0 3.0 0.00 0.14 0.00 81 1005.6
20260903123107 46 223 0.0 3.0 0.00 0.14 0.00 81 1005.6
20260903122943 46 223 1.0 3.0 0.00 0.14 0.00 81 1005.6
20260903122909 46 223 2.0 3.0 0.00 0.14 0.00 81 1005.7
20260903122745 46 223 2.0 3.0 0.00 0.14 0.00 81 1005.7
20260903122652 46 223 2.0 3.0 0.00 0.14 0.00 80 1005.7
20260903122617 46 223 2.0 3.0 0.00 0.14 0.00 80 1005.7
20260903122454 46 223 1.0 3.0 0.00 0.14 0.00 80 1005.7
20260903122339 46 223 1.0 3.0 0.00 0.14 0.00 80 1005.7
20260903122300 46 223 1.0 3.0 0.00 0.14 0.00 80 1005.8
20260903122148 46 223 1.0 3.0 0.00 0.14 0.00 80 1005.7
20260903122044 46 223 1.0 3.0 0.00 0.14 0.00 80 1005.7
20260903121950 46 223 1.0 3.0 0.00 0.14 0.00 80 1005.7
20260903121907 46 223 1.0 3.0 0.00 0.14 0.00 79 1005.7
20260903121753 46 223 1.0 3.0 0.00 0.14 0.00 79 1005.8
20260903121701 46 223 1.0 3.0 0.00 0.14 0.00 79 1005.7
20260903121541 46 223 2.0 3.0 0.00 0.14 0.00 79 1005.7
20260903121458 46 223 1.0 3.0 0.00 0.14 0.00 79 1005.7
20260903121344 46 223 0.0 3.0 0.00 0.14 0.00 79 1005.7
20260903121240 46 223 1.0 3.0 0.00 0.14 0.00 79 1005.6
20260903121208 47 223 2.0 3.0 0.00 0.14 0.00 79 1005.6
20260903121043 47 223 2.0 3.0 0.00 0.14 0.00 79 1005.6
20260903120940 47 223 1.0 4.0 0.00 0.14 0.00 79 1005.6
20260903120851 47 223 1.0 6.0 0.00 0.14 0.00 78 1005.7
20260903120818 47 223 1.0 6.0 0.00 0.14 0.00 78 1005.7
20260903120655 47 223 1.0 6.0 0.00 0.14 0.00 78 1005.7
20260903120550 47 223 1.0 6.0 0.00 0.14 0.00 78 1005.7
20260903120457 47 223 2.0 6.0 0.00 0.14 0.00 78 1005.7
20260903120355 47 223 2.0 6.0 0.00 0.14 0.00 78 1005.7
20260903120311 47 223 2.0 6.0 0.00 0.14 0.00 78 1005.7
20260903120140 47 223 3.0 6.0 0.00 0.14 0.00 78 1005.7
20260903120104 47 223 3.0 6.0 0.00 0.14 0.00 78 1005.7
20260903120001 47 223 3.0 6.0 0.00 0.14 0.00 78 1005.7
20260903115927 47 158 2.0 5.0 0.00 0.14 0.00 78 1005.7
20260903115802 47 158 2.0 5.0 0.00 0.14 0.00 78 1005.7
20260903115649 47 158 3.0 5.0 0.00 0.14 0.00 78 1005.7
20260903115544 47 158 2.0 5.0 0.00 0.14 0.00 77 1005.7
20260903115446 47 158 3.0 5.0 0.00 0.14 0.00 77 1005.7
20260903115352 47 158 2.0 5.0 0.00 0.14 0.00 77 1005.8
20260903115248 47 158 2.0 5.0 0.00 0.14 0.00 77 1005.8
20260903115157 47 158 2.0 5.0 0.00 0.14 0.00 77 1005.8
20260903115053 47 158 2.0 5.0 0.00 0.14 0.00 77 1005.8
20260903115001 47 158 3.0 5.0 0.00 0.14 0.00 77 1005.8
20260903114840 47 158 3.0 4.0 0.00 0.14 0.00 76 1005.8
20260903114758 47 158 2.0 3.0 0.00 0.14 0.00 76 1005.8
20260903114646 47 158 2.0 3.0 0.00 0.14 0.00 76 1005.8
20260903114541 47 158 1.0 3.0 0.00 0.14 0.00 76 1005.8
20260903114506 47 158 1.0 2.0 0.00 0.14 0.00 76 1005.8
20260903114343 47 158 0.0 0.0 0.00 0.14 0.00 76 1005.8
20260903114244 47 158 0.0 0.0 0.00 0.14 0.00 76 1005.8
20260903114152 47 158 0.0 0.0 0.00 0.14 0.00 76 1005.8
20260903114048 47 158 0.0 0.0 0.00 0.14 0.00 76 1005.8
20260903113945 47 158 0.0 0.0 0.00 0.14 0.00 76 1005.8
20260903113851 47 158 0.0 0.0 0.00 0.14 0.00 77 1005.8
20260903113816 47 158 0.0 2.0 0.00 0.14 0.00 77 1005.8
20260903113654 47 158 0.0 3.0 0.00 0.14 0.00 77 1005.7
20260903113603 47 158 0.0 3.0 0.00 0.14 0.00 77 1005.7
20260903113440 47 158 0.0 3.0 0.00 0.14 0.00 77 1005.7
20260903113338 47 158 0.0 3.0 0.00 0.14 0.00 77 1005.7
20260903113304 47 158 0.0 3.0 0.00 0.14 0.00 77 1005.7
20260903113143 47 158 0.0 5.0 0.00 0.14 0.00 76 1005.7
20260903113038 47 158 1.0 5.0 0.00 0.14 0.00 76 1005.7
20260903113005 47 158 1.0 5.0 0.00 0.14 0.00 76 1005.7
20260903112844 47 158 2.0 5.0 0.00 0.14 0.00 76 1005.7
20260903112810 47 158 2.0 5.0 0.00 0.14 0.00 76 1005.7
20260903112657 47 158 2.0 5.0 0.00 0.14 0.00 76 1005.7
20260903112551 47 158 2.0 5.0 0.00 0.14 0.00 76 1005.7
20260903112448 47 158 3.0 5.0 0.00 0.14 0.00 76 1005.7
20260903112352 47 158 3.0 5.0 0.00 0.14 0.00 76 1005.7
20260903112257 47 158 3.0 5.0 0.00 0.14 0.00 76 1005.7
20260903112217 47 158 2.0 5.0 0.00 0.14 0.00 76 1005.8
20260903112044 47 158 2.0 5.0 0.00 0.14 0.00 76 1005.7
20260903111940 47 158 2.0 5.0 0.00 0.14 0.00 76 1005.7
20260903111845 47 158 2.0 5.0 0.00 0.14 0.00 75 1005.7
20260903111743 47 158 1.0 5.0 0.00 0.14 0.00 75 1005.7
20260903111650 47 158 2.0 5.0 0.00 0.14 0.00 75 1005.7
20260903111545 47 158 3.0 5.0 0.00 0.14 0.00 75 1005.7
20260903111446 47 158 2.0 5.0 0.00 0.14 0.00 75 1005.7
20260903111353 47 158 3.0 5.0 0.00 0.14 0.00 75 1005.7
20260903111251 47 158 3.0 4.0 0.00 0.14 0.00 76 1005.7
20260903111218 47 157 3.0 4.0 0.00 0.14 0.00 76 1005.8
20260903111106 47 157 2.0 4.0 0.00 0.14 0.00 76 1005.8
20260903111002 47 157 1.0 4.0 0.00 0.14 0.00 76 1005.8
20260903110846 47 157 1.0 4.0 0.00 0.14 0.00 76 1005.8
20260903110751 47 157 2.0 4.0 0.00 0.14 0.00 76 1005.8
20260903110653 47 157 3.0 4.0 0.00 0.14 0.00 76 1005.8
20260903110549 47 157 3.0 4.0 0.00 0.14 0.00 76 1005.7
20260903110456 47 157 2.0 4.0 0.00 0.14 0.00 76 1005.8
20260903110423 47 156 0.0 3.0 0.00 0.14 0.00 76 1005.7
20260903110307 47 156 0.0 0.0 0.00 0.14 0.00 77 1005.7
20260903110201 47 156 0.0 0.0 0.00 0.14 0.00 77 1005.7
20260903110115 47 156 0.0 0.0 0.00 0.14 0.00 77 1005.7
20260903105959 47 156 0.0 0.0 0.00 0.14 0.00 77 1005.7
20260903105908 47 156 0.0 0.0 0.00 0.14 0.00 77 1005.7
20260903105743 47 156 0.0 0.0 0.00 0.14 0.00 77 1005.7
20260903105642 47 156 0.0 0.0 0.00 0.14 0.00 77 1005.7
20260903105546 47 156 0.0 0.0 0.00 0.14 0.00 77 1005.7
20260903105444 47 156 0.0 0.0 0.00 0.14 0.00 77 1005.7
20260903105409 47 156 0.0 0.0 0.00 0.14 0.00 77 1005.7
20260903105246 47 156 0.0 0.0 0.00 0.14 0.00 77 1005.7
20260903105158 48 156 0.0 0.0 0.00 0.14 0.00 77 1005.7
20260903105054 48 156 0.0 1.0 0.00 0.14 0.00 77 1005.7
20260903105001 48 156 0.0 1.0 0.00 0.14 0.00 77 1005.7
20260903104839 48 156 0.0 1.0 0.00 0.14 0.00 77 1005.7
20260903104806 48 156 0.0 1.0 0.00 0.14 0.00 77 1005.7
20260903104643 48 156 0.0 1.0 0.00 0.14 0.00 77 1005.7
20260903104543 48 156 0.0 1.0 0.00 0.14 0.00 77 1005.7
20260903104450 48 156 0.0 1.0 0.00 0.14 0.00 77 1005.8
20260903104348 48 156 0.0 1.0 0.00 0.14 0.00 77 1005.7
20260903104315 48 156 0.0 1.0 0.00 0.14 0.00 77 1005.7
20260903104152 48 156 0.0 1.0 0.00 0.14 0.00 77 1005.7
20260903104057 48 156 0.0 2.0 0.00 0.14 0.00 77 1005.7
20260903104015 48 156 0.0 2.0 0.00 0.14 0.00 77 1005.7
20260903103845 48 156 0.0 3.0 0.00 0.14 0.00 77 1005.7
20260903103742 48 156 0.0 3.0 0.00 0.14 0.00 77 1005.7
20260903103642 48 156 0.0 3.0 0.00 0.14 0.00 77 1005.7
20260903103545 48 156 0.0 5.0 0.00 0.14 0.00 77 1005.7
20260903103442 48 156 0.0 5.0 0.00 0.14 0.00 77 1005.7
20260903103348 48 156 0.0 5.0 0.00 0.14 0.00 77 1005.7
20260903103246 48 156 1.0 5.0 0.00 0.14 0.00 77 1005.7
20260903103149 48 156 1.0 5.0 0.00 0.14 0.00 77 1005.7
20260903103053 48 156 2.0 5.0 0.00 0.14 0.00 76 1005.7
20260903102950 48 156 2.0 5.0 0.00 0.14 0.00 77 1005.7
20260903102917 48 156 2.0 5.0 0.00 0.14 0.00 76 1005.7
20260903102802 48 156 2.0 5.0 0.00 0.14 0.00 76 1005.8
20260903102640 48 156 2.0 5.0 0.00 0.14 0.00 77 1005.8
20260903102539 48 156 2.0 4.0 0.00 0.14 0.00 76 1005.8
20260903102444 48 156 2.0 4.0 0.00 0.14 0.00 76 1005.7
20260903102340 48 156 2.0 4.0 0.00 0.14 0.00 76 1005.7
20260903102305 48 156 2.0 4.0 0.00 0.14 0.00 76 1005.7
20260903102149 49 156 2.0 4.0 0.00 0.14 0.00 76 1005.7
20260903102105 49 156 3.0 4.0 0.00 0.14 0.00 76 1005.7
20260903101949 49 156 3.0 4.0 0.00 0.14 0.00 76 1005.7
20260903101855 49 156 3.0 4.0 0.00 0.14 0.00 76 1005.7
20260903101752 49 156 3.0 4.0 0.00 0.14 0.00 76 1005.7
20260903101655 49 156 2.0 4.0 0.00 0.14 0.00 76 1005.8
20260903101559 49 156 2.0 7.0 0.00 0.14 0.00 76 1005.7
20260903101456 49 156 3.0 7.0 0.00 0.14 0.00 76 1005.8
20260903101403 49 156 3.0 7.0 0.00 0.14 0.00 76 1005.7
20260903101240 49 156 2.0 7.0 0.00 0.14 0.00 75 1005.7
20260903101207 49 156 2.0 7.0 0.00 0.14 0.00 75 1005.7
20260903101045 49 156 2.0 7.0 0.00 0.14 0.00 75 1005.7
20260903101002 49 156 3.0 7.0 0.00 0.14 0.00 75 1005.7
20260903100845 49 156 3.0 7.0 0.00 0.14 0.00 75 1005.7
20260903100741 49 156 3.0 7.0 0.00 0.14 0.00 75 1005.7
20260903100710 49 238 2.0 5.0 0.00 0.14 0.00 75 1005.7
20260903100543 49 238 2.0 5.0 0.00 0.14 0.00 75 1005.7
20260903100448 49 238 3.0 5.0 0.00 0.14 0.00 75 1005.7
20260903100349 49 238 3.0 5.0 0.00 0.14 0.00 75 1005.6
20260903100305 49 238 3.0 5.0 0.00 0.14 0.00 75 1005.6
20260903100200 49 238 3.0 4.0 0.00 0.14 0.00 75 1005.6
20260903100115 49 238 3.0 4.0 0.00 0.14 0.00 75 1005.6
20260903100000 49 238 3.0 5.0 0.00 0.14 0.00 75 1005.6
20260903095856 49 238 3.0 5.0 0.00 0.14 0.00 75 1005.6
20260903095803 49 238 3.0 5.0 0.00 0.14 0.00 74 1005.6
20260903095642 49 238 3.0 5.0 0.00 0.14 0.00 74 1005.6
20260903095540 49 238 3.0 6.0 0.00 0.14 0.00 74 1005.6
20260903095447 49 238 3.0 6.0 0.00 0.14 0.00 74 1005.6
20260903095413 49 238 3.0 6.0 0.00 0.14 0.00 74 1005.6
20260903095310 49 238 4.0 6.0 0.00 0.14 0.00 74 1005.5
20260903095218 49 238 4.0 6.0 0.00 0.14 0.00 74 1005.5
20260903095102 49 238 4.0 6.0 0.00 0.14 0.00 74 1005.5
20260903094958 49 238 4.0 6.0 0.00 0.14 0.00 74 1005.5
20260903094845 49 238 3.0 9.0 0.00 0.14 0.00 74 1005.4
20260903094746 49 238 4.0 9.0 0.00 0.14 0.00 74 1005.5
20260903094711 49 238 4.0 9.0 0.00 0.14 0.00 74 1005.5
20260903094615 49 238 4.0 9.0 0.00 0.14 0.00 74 1005.5
20260903094452 49 238 4.0 9.0 0.00 0.14 0.00 74 1005.5
20260903094418 49 238 4.0 9.0 0.00 0.14 0.00 74 1005.5
20260903094302 49 238 5.0 9.0 0.00 0.14 0.00 74 1005.5
20260903094159 49 239 6.0 9.0 0.00 0.14 0.00 74 1005.5
20260903094124 50 239 7.0 9.0 0.00 0.14 0.00 74 1005.5
20260903093944 50 235 6.0 10.0 0.00 0.14 0.00 74 1005.5
20260903093840 50 254 5.0 10.0 0.00 0.14 0.00 74 1005.5
20260903093747 50 257 5.0 11.0 0.00 0.14 0.00 74 1005.5
20260903093645 50 236 6.0 11.0 0.00 0.14 0.00 74 1005.4
20260903093549 50 264 6.0 11.0 0.00 0.14 0.00 74 1005.5
20260903093447 50 256 6.0 11.0 0.00 0.14 0.00 74 1005.5
20260903093353 50 237 6.0 11.0 0.00 0.14 0.00 74 1005.4
20260903093254 50 252 7.0 11.0 0.00 0.14 0.00 74 1005.5
20260903093203 50 248 7.0 11.0 0.00 0.14 0.00 74 1005.4
20260903093058 50 236 7.0 11.0 0.00 0.14 0.00 74 1005.4
20260903092954 50 247 8.0 11.0 0.00 0.14 0.00 74 1005.4
20260903092900 50 253 7.0 11.0 0.00 0.14 0.00 74 1005.4
20260903092748 50 252 6.0 13.0 0.00 0.14 0.00 73 1005.3
20260903092716 50 256 6.0 13.0 0.00 0.14 0.00 74 1005.3
20260903092555 50 246 7.0 14.0 0.00 0.14 0.00 73 1005.4
20260903092439 50 248 6.0 14.0 0.00 0.14 0.00 73 1005.4
20260903092405 50 250 6.0 14.0 0.00 0.14 0.00 73 1005.4
20260903092240 50 261 8.0 14.0 0.00 0.14 0.00 73 1005.4
20260903092207 50 264 8.0 14.0 0.00 0.14 0.00 73 1005.4
20260903092102 50 257 7.0 14.0 0.00 0.14 0.00 74 1005.5
20260903091948 50 260 8.0 14.0 0.00 0.14 0.00 73 1005.5
20260903091854 50 247 9.0 14.0 0.00 0.14 0.00 74 1005.5
20260903091751 50 260 7.0 14.0 0.00 0.14 0.00 74 1005.4
20260903091648 50 269 6.0 11.0 0.00 0.14 0.00 74 1005.4
20260903091553 50 254 7.0 11.0 0.00 0.14 0.00 74 1005.5
20260903091451 50 254 7.0 11.0 0.00 0.14 0.00 74 1005.5
20260903091358 50 263 5.0 12.0 0.00 0.14 0.00 74 1005.5
20260903091255 50 246 5.0 14.0 0.00 0.14 0.00 74 1005.5
20260903091202 50 246 6.0 14.0 0.00 0.14 0.00 74 1005.5
20260903091102 50 245 6.0 14.0 0.00 0.14 0.00 74 1005.5
20260903091007 50 244 5.0 14.0 0.00 0.14 0.00 74 1005.5
20260903090844 50 218 6.0 14.0 0.00 0.14 0.00 74 1005.5
20260903090742 50 242 7.0 14.0 0.00 0.14 0.00 74 1005.4
20260903090649 50 254 8.0 14.0 0.00 0.14 0.00 74 1005.5
20260903090604 50 262 8.0 14.0 0.00 0.14 0.00 74 1005.5
20260903090450 50 264 8.0 14.0 0.00 0.14 0.00 75 1005.5
20260903090352 50 250 9.0 14.0 0.00 0.14 0.00 75 1005.5
20260903090306 50 243 9.0 14.0 0.00 0.14 0.00 75 1005.5
20260903090159 50 243 8.0 14.0 0.00 0.14 0.00 75 1005.5
20260903090123 50 252 9.0 14.0 0.00 0.14 0.00 75 1005.5
20260903085957 49 246 10.0 14.0 0.00 0.14 0.00 75 1005.5
20260903085924 49 257 10.0 14.0 0.00 0.14 0.00 75 1005.4
20260903085740 49 256 9.0 14.0 0.00 0.14 0.00 76 1005.4
20260903085706 49 250 8.0 14.0 0.00 0.14 0.00 76 1005.4
20260903085546 49 246 7.0 13.0 0.00 0.14 0.00 76 1005.4
20260903085513 49 257 8.0 13.0 0.00 0.14 0.00 76 1005.5
20260903085350 49 250 8.0 13.0 0.00 0.14 0.00 76 1005.4
20260903085247 49 269 7.0 13.0 0.00 0.14 0.00 76 1005.4
20260903085154 49 284 7.0 13.0 0.00 0.14 0.00 76 1005.5
20260903085120 49 260 8.0 12.0 0.00 0.14 0.00 76 1005.5
20260903084956 49 275 8.0 12.0 0.00 0.14 0.00 77 1005.5
20260903084838 49 233 6.0 12.0 0.00 0.14 0.00 77 1005.5
20260903084745 49 257 5.0 12.0 0.00 0.14 0.00 77 1005.4
20260903084643 49 248 6.0 14.0 0.00 0.14 0.00 77 1005.4
20260903084538 49 267 6.0 14.0 0.00 0.14 0.00 77 1005.4
20260903084444 49 261 7.0 14.0 0.00 0.14 0.00 77 1005.4
20260903084410 49 254 8.0 14.0 0.00 0.14 0.00 77 1005.4
20260903084245 49 279 7.0 14.0 0.00 0.14 0.00 77 1005.4
20260903084158 49 253 6.0 14.0 0.00 0.14 0.00 77 1005.4
20260903084051 49 262 7.0 14.0 0.00 0.14 0.00 77 1005.4
20260903083956 49 264 9.0 14.0 0.00 0.14 0.00 77 1005.4
20260903083851 49 254 10.0 14.0 0.00 0.14 0.00 77 1005.4
20260903083757 49 287 9.0 14.0 0.00 0.14 0.00 78 1005.5
20260903083656 49 264 7.0 11.0 0.00 0.14 0.00 78 1005.4
20260903083600 49 285 6.0 11.0 0.00 0.14 0.00 78 1005.5
20260903083441 49 270 7.0 11.0 0.00 0.14 0.00 78 1005.5
20260903083338 49 264 5.0 11.0 0.00 0.14 0.00 78 1005.5
20260903083242 49 242 5.0 11.0 0.00 0.14 0.00 78 1005.3
20260903083142 49 271 6.0 11.0 0.00 0.14 0.00 78 1005.4
20260903083105 49 233 7.0 11.0 0.00 0.14 0.00 78 1005.4
20260903082940 49 232 8.0 11.0 0.00 0.14 0.00 78 1005.3
20260903082846 49 269 7.0 11.0 0.00 0.14 0.00 78 1005.4
20260903082748 49 277 5.0 11.0 0.00 0.14 0.00 79 1005.4
20260903082655 49 263 4.0 11.0 0.00 0.14 0.00 79 1005.4
20260903082550 49 237 3.0 11.0 0.00 0.14 0.00 79 1005.4
20260903082455 49 237 3.0 11.0 0.00 0.14 0.00 79 1005.4
20260903082352 49 237 4.0 13.0 0.00 0.14 0.00 79 1005.4
20260903082259 49 237 4.0 15.0 0.00 0.14 0.00 79 1005.4
20260903082140 49 237 6.0 15.0 0.00 0.14 0.00 79 1005.4
20260903082108 49 236 7.0 15.0 0.00 0.14 0.00 79 1005.4
20260903081944 49 257 6.0 15.0 0.00 0.14 0.00 79 1005.4
20260903081841 49 237 4.0 15.0 0.00 0.14 0.00 79 1005.5
20260903081807 49 217 5.0 15.0 0.00 0.14 0.00 79 1005.5
20260903081645 49 227 7.0 15.0 0.00 0.14 0.00 79 1005.5
20260903081550 49 233 9.0 15.0 0.00 0.14 0.00 79 1005.5
20260903081452 49 268 9.0 15.0 0.00 0.14 0.00 80 1005.5
20260903081359 49 236 9.0 15.0 0.00 0.14 0.00 80 1005.6
20260903081255 49 248 8.0 12.0 0.00 0.14 0.00 80 1005.5
20260903081202 49 249 7.0 10.0 0.00 0.14 0.00 80 1005.5
20260903081038 49 249 5.0 9.0 0.00 0.14 0.00 80 1005.5
20260903080944 49 246 5.0 9.0 0.00 0.14 0.00 80 1005.5
20260903080858 49 241 6.0 9.0 0.00 0.14 0.00 80 1005.5
20260903080749 49 248 6.0 10.0 0.00 0.14 0.00 80 1005.5
20260903080708 49 258 5.0 10.0 0.00 0.14 0.00 80 1005.5
20260903080552 49 239 5.0 9.0 0.00 0.14 0.00 80 1005.5
20260903080449 49 251 3.0 8.0 0.00 0.14 0.00 80 1005.5
20260903080415 49 245 3.0 8.0 0.00 0.14 0.00 80 1005.5
20260903080311 49 245 4.0 8.0 0.00 0.14 0.00 80 1005.5
20260903080156 49 245 5.0 8.0 0.00 0.14 0.00 80 1005.4
20260903080052 49 222 5.0 8.0 0.00 0.14 0.00 80 1005.4
20260903080002 50 219 5.0 9.0 0.00 0.14 0.00 80 1005.4
20260903075839 50 215 4.0 9.0 0.00 0.14 0.00 80 1005.4
20260903075806 50 215 4.0 9.0 0.00 0.14 0.00 80 1005.4
20260903075646 50 215 3.0 9.0 0.00 0.14 0.00 80 1005.4
20260903075541 50 253 4.0 9.0 0.00 0.14 0.00 80 1005.4
20260903075448 50 253 4.0 9.0 0.00 0.14 0.00 80 1005.4
20260903075349 50 253 3.0 9.0 0.00 0.14 0.00 80 1005.5
20260903075246 50 279 3.0 7.0 0.00 0.14 0.00 79 1005.5
20260903075153 50 283 2.0 7.0 0.00 0.14 0.00 79 1005.5
20260903075046 50 239 2.0 4.0 0.00 0.14 0.00 79 1005.5
20260903074951 50 239 1.0 3.0 0.00 0.14 0.00 79 1005.5
20260903074857 50 239 1.0 3.0 0.00 0.14 0.00 79 1005.5
20260903074738 50 239 0.0 3.0 0.00 0.14 0.00 80 1005.5
20260903074657 50 239 0.0 0.0 0.00 0.14 0.00 80 1005.5
20260903074600 50 239 0.0 0.0 0.00 0.14 0.00 80 1005.4
20260903074506 50 239 0.0 0.0 0.00 0.14 0.00 80 1005.4
20260903074342 50 239 0.0 1.0 0.00 0.14 0.00 79 1005.5
20260903074309 50 239 0.0 2.0 0.00 0.14 0.00 79 1005.5
20260903074145 50 239 0.0 2.0 0.00 0.14 0.00 79 1005.5
20260903074041 50 239 0.0 2.0 0.00 0.14 0.00 79 1005.4
20260903073952 50 239 0.0 2.0 0.00 0.14 0.00 79 1005.4
20260903073850 50 239 0.0 2.0 0.00 0.14 0.00 79 1005.3
20260903073757 50 239 0.0 3.0 0.00 0.14 0.00 79 1005.4
20260903073656 50 239 0.0 3.0 0.00 0.14 0.00 79 1005.4
20260903073601 50 239 0.0 3.0 0.00 0.14 0.00 79 1005.3
20260903073439 50 239 1.0 3.0 0.00 0.14 0.00 79 1005.3
20260903073400 50 239 0.0 4.0 0.00 0.14 0.00 79 1005.3
20260903073246 50 239 1.0 4.0 0.00 0.14 0.00 79 1005.3
20260903073144 51 239 1.0 4.0 0.00 0.14 0.00 79 1005.3
20260903073050 51 239 1.0 4.0 0.00 0.14 0.00 79 1005.4
20260903072948 51 239 2.0 4.0 0.00 0.14 0.00 79 1005.4
20260903072914 51 239 2.0 4.0 0.00 0.14 0.00 79 1005.5
20260903072758 51 239 2.0 4.0 0.00 0.14 0.00 79 1005.5
20260903072638 51 239 2.0 6.0 0.00 0.14 0.00 79 1005.5
20260903072607 51 239 2.0 6.0 0.00 0.14 0.00 79 1005.5
20260903072502 51 239 2.0 6.0 0.00 0.14 0.00 79 1005.5
20260903072407 51 239 2.0 6.0 0.00 0.14 0.00 79 1005.5
20260903072244 51 239 2.0 7.0 0.00 0.14 0.00 79 1005.4
20260903072143 51 239 2.0 7.0 0.00 0.14 0.00 79 1005.3
20260903072048 51 239 2.0 7.0 0.00 0.14 0.00 79 1005.4
20260903071949 51 239 3.0 9.0 0.00 0.14 0.00 79 1005.4
20260903071855 51 239 3.0 9.0 0.00 0.14 0.00 79 1005.4
20260903071753 51 239 3.0 9.0 0.00 0.14 0.00 79 1005.4
20260903071720 51 239 3.0 9.0 0.00 0.14 0.00 79 1005.3
20260903071556 51 239 3.0 9.0 0.00 0.14 0.00 79 1005.4
20260903071503 51 239 5.0 9.0 0.00 0.14 0.00 79 1005.4
20260903071340 51 239 5.0 9.0 0.00 0.14 0.00 79 1005.4
20260903071251 51 245 5.0 10.0 0.00 0.14 0.00 79 1005.5
20260903071148 51 255 4.0 10.0 0.00 0.14 0.00 79 1005.4
20260903071051 51 254 4.0 10.0 0.00 0.14 0.00 79 1005.3
20260903070949 51 254 5.0 10.0 0.00 0.14 0.00 79 1005.3
20260903070854 51 254 5.0 10.0 0.00 0.14 0.00 79 1005.3
20260903070752 51 247 5.0 10.0 0.00 0.14 0.00 79 1005.3
20260903070651 51 246 5.0 10.0 0.00 0.14 0.00 79 1005.3
20260903070601 51 260 6.0 10.0 0.00 0.14 0.00 79 1005.3
20260903070506 51 255 6.0 10.0 0.00 0.14 0.00 79 1005.2
20260903070345 51 261 4.0 12.0 0.00 0.14 0.00 79 1005.1
20260903070301 51 261 4.0 12.0 0.00 0.14 0.00 80 1005.1
20260903070155 51 262 6.0 12.0 0.00 0.14 0.00 80 1005.1
20260903070111 51 256 6.0 12.0 0.00 0.14 0.14 80 1005.1
20260903070017 51 265 6.0 12.0 0.00 0.14 0.14 80 1005.1
20260903065902 51 267 5.0 12.0 0.00 0.14 0.14 80 1005.1
20260903065739 51 269 5.0 13.0 0.00 0.14 0.14 80 1005.1
20260903065642 51 264 7.0 13.0 0.00 0.14 0.14 80 1005.0
20260903065606 51 267 7.0 13.0 0.00 0.14 0.14 80 1005.0
20260903065452 51 264 6.0 13.0 0.00 0.14 0.14 81 1005.0
20260903065348 51 244 5.0 13.0 0.00 0.14 0.14 81 1005.0
20260903065315 51 254 6.0 13.0 0.00 0.14 0.14 81 1005.0
20260903065153 51 248 6.0 13.0 0.00 0.14 0.14 81 1005.1
20260903065058 51 265 6.0 13.0 0.00 0.14 0.14 80 1005.0
20260903064939 51 250 7.0 13.0 0.00 0.14 0.14 80 1005.0
20260903064906 51 277 7.0 14.0 0.00 0.14 0.14 80 1005.0
20260903064803 51 268 6.0 14.0 0.00 0.14 0.14 80 1004.8
20260903064650 51 268 6.0 14.0 0.00 0.14 0.14 80 1004.9
20260903064553 51 262 8.0 14.0 0.00 0.14 0.14 81 1004.9
20260903064511 51 273 7.0 14.0 0.00 0.14 0.14 81 1004.9
20260903064415 51 253 7.0 14.0 0.00 0.14 0.14 81 1005.0
20260903064301 51 263 7.0 14.0 0.00 0.14 0.14 81 1004.9
20260903064144 51 280 8.0 14.0 0.00 0.14 0.14 80 1005.0
20260903064039 51 273 9.0 14.0 0.00 0.14 0.14 80 1005.0
20260903063944 51 265 8.0 14.0 0.00 0.14 0.14 81 1005.0
20260903063840 51 252 6.0 13.0 0.00 0.14 0.14 81 1004.9
20260903063746 51 279 7.0 13.0 0.00 0.14 0.14 81 1005.0
20260903063646 51 272 8.0 13.0 0.00 0.14 0.14 81 1005.0
20260903063540 51 290 8.0 13.0 0.00 0.14 0.14 81 1005.0
20260903063449 51 277 7.0 13.0 0.00 0.14 0.14 81 1005.0
20260903063356 51 297 5.0 13.0 0.00 0.14 0.14 81 1005.0
20260903063253 51 254 7.0 13.0 0.00 0.14 0.14 81 1005.0
20260903063151 51 276 9.0 13.0 0.00 0.14 0.14 81 1004.9
20260903063055 51 267 8.0 13.0 0.00 0.14 0.14 82 1005.0
20260903063020 51 287 6.0 13.0 0.00 0.14 0.14 82 1004.9
20260903062857 51 292 6.0 8.0 0.00 0.14 0.14 82 1004.9
20260903062738 51 272 5.0 10.0 0.00 0.14 0.14 82 1004.9
20260903062644 51 273 3.0 10.0 0.00 0.14 0.14 82 1004.9
20260903062541 51 272 4.0 11.0 0.00 0.14 0.14 82 1005.0
20260903062438 51 272 4.0 11.0 0.00 0.14 0.14 82 1004.9
20260903062344 51 272 4.0 11.0 0.00 0.14 0.14 82 1005.0
20260903062240 51 271 4.0 11.0 0.00 0.14 0.14 82 1005.0
20260903062207 51 271 5.0 11.0 0.00 0.14 0.14 82 1004.9
20260903062056 51 264 5.0 11.0 0.00 0.14 0.14 82 1004.8
20260903062010 51 274 7.0 11.0 0.00 0.14 0.14 82 1004.9
20260903061915 51 275 7.0 11.0 0.00 0.14 0.14 83 1004.8
20260903061801 51 271 7.0 11.0 0.00 0.14 0.14 83 1004.8
20260903061640 51 235 5.0 12.0 0.00 0.14 0.14 84 1004.7
20260903061605 51 235 3.0 5.0 0.00 0.14 0.14 84 1004.8
20260903061441 51 234 3.0 5.0 0.00 0.14 0.14 84 1004.7
20260903061343 51 234 3.0 6.0 0.00 0.14 0.14 84 1004.7
20260903061249 51 235 3.0 6.0 0.00 0.14 0.14 84 1004.7
20260903061218 51 234 3.0 6.0 0.00 0.14 0.14 84 1004.8
20260903061052 51 234 2.0 6.0 0.00 0.14 0.14 84 1004.6
20260903060949 51 234 2.0 6.0 0.00 0.14 0.14 84 1004.6
20260903060854 51 234 2.0 6.0 0.00 0.14 0.14 84 1004.6
20260903060751 51 234 2.0 6.0 0.00 0.14 0.14 84 1004.6
20260903060701 51 235 3.0 6.0 0.00 0.14 0.14 85 1004.6
20260903060629 51 234 3.0 6.0 0.00 0.14 0.14 85 1004.6
20260903060443 51 229 0.0 4.0 0.00 0.14 0.14 85 1004.6
20260903060339 51 229 0.0 3.0 0.00 0.14 0.14 85 1004.6
20260903060255 51 229 1.0 3.0 0.00 0.14 0.14 85 1004.6
20260903060139 51 229 1.0 4.0 0.00 0.14 0.14 85 1004.7
20260903060105 51 229 0.0 4.0 0.00 0.14 0.14 85 1004.7
20260903055951 51 229 0.0 4.0 0.00 0.14 0.14 85 1004.7
20260903055852 51 229 0.0 4.0 0.00 0.14 0.14 85 1004.7
20260903055818 51 229 0.0 4.0 0.00 0.14 0.14 85 1004.7
20260903055656 51 229 0.0 4.0 0.00 0.14 0.14 85 1004.7
20260903055538 52 229 1.0 4.0 0.00 0.14 0.14 85 1004.8
20260903055505 52 229 1.0 4.0 0.00 0.14 0.14 85 1004.8
20260903055341 52 229 2.0 4.0 0.00 0.14 0.14 85 1004.9
20260903055238 52 229 2.0 4.0 0.00 0.14 0.14 85 1004.8
20260903055151 52 229 2.0 4.0 0.00 0.14 0.14 85 1004.8
20260903055047 52 229 2.0 4.0 0.00 0.14 0.14 85 1004.8
20260903055014 52 229 3.0 4.0 0.00 0.14 0.14 85 1004.9
20260903054848 52 229 3.0 3.0 0.00 0.14 0.14 85 1004.9
20260903054753 52 229 2.0 3.0 0.01 0.14 0.14 85 1004.9
20260903054651 52 229 3.0 4.0 0.01 0.14 0.14 85 1004.9
20260903054546 52 229 2.0 4.0 0.01 0.14 0.14 85 1004.9
20260903054456 52 229 2.0 5.0 0.01 0.14 0.14 85 1004.9
20260903054353 52 229 2.0 6.0 0.01 0.14 0.14 85 1004.8
20260903054300 52 229 2.0 6.0 0.01 0.14 0.14 85 1004.9
20260903054155 52 229 1.0 6.0 0.01 0.14 0.14 85 1004.9
20260903054100 52 229 1.0 6.0 0.01 0.14 0.14 85 1004.8
20260903053938 52 229 2.0 6.0 0.01 0.14 0.14 85 1004.8
20260903053839 52 229 3.0 6.0 0.01 0.14 0.14 85 1004.9
20260903053743 52 229 4.0 6.0 0.01 0.14 0.14 84 1004.8
20260903053641 52 229 4.0 6.0 0.01 0.14 0.14 84 1004.9
20260903053544 52 229 4.0 6.0 0.01 0.14 0.14 84 1004.8
20260903053508 52 229 3.0 4.0 0.01 0.14 0.14 84 1004.8
20260903053352 52 229 2.0 3.0 0.01 0.14 0.14 84 1004.8
20260903053309 52 229 2.0 3.0 0.01 0.14 0.14 84 1004.7
20260903053155 52 229 2.0 3.0 0.01 0.14 0.14 84 1004.7
20260903053050 52 229 2.0 3.0 0.01 0.14 0.14 84 1004.6
20260903052959 52 229 2.0 3.0 0.01 0.14 0.14 84 1004.7
20260903052854 52 229 1.0 3.0 0.01 0.14 0.14 84 1004.6
20260903052800 52 229 1.0 3.0 0.01 0.14 0.14 84 1004.5
20260903052659 52 229 1.0 3.0 0.01 0.14 0.14 84 1004.5
20260903052555 52 229 1.0 3.0 0.01 0.14 0.14 84 1004.5
20260903052502 52 229 1.0 3.0 0.01 0.14 0.14 84 1004.5
20260903052402 52 229 1.0 3.0 0.01 0.14 0.14 84 1004.5
20260903052246 52 229 1.0 3.0 0.01 0.14 0.14 84 1004.3
20260903052146 52 229 1.0 3.0 0.01 0.14 0.14 84 1004.3
20260903052051 52 229 2.0 4.0 0.01 0.14 0.14 84 1004.4
20260903051946 52 229 2.0 7.0 0.01 0.14 0.14 83 1004.3
20260903051914 52 229 2.0 7.0 0.01 0.14 0.14 83 1004.3
20260903051750 52 229 1.0 8.0 0.01 0.14 0.14 83 1004.3
20260903051702 52 229 1.0 8.0 0.01 0.14 0.14 83 1004.4
20260903051557 52 229 0.0 8.0 0.01 0.14 0.14 83 1004.5
20260903051502 52 229 0.0 8.0 0.01 0.14 0.14 83 1004.6
20260903051340 52 229 2.0 8.0 0.01 0.14 0.14 83 1004.7
20260903051306 52 229 3.0 8.0 0.01 0.14 0.14 83 1004.7
20260903051146 52 229 5.0 8.0 0.01 0.14 0.14 83 1005.0
20260903051042 52 239 6.0 8.0 0.01 0.14 0.14 83 1005.1
20260903050952 52 240 6.0 11.0 0.01 0.14 0.14 83 1005.2
20260903050850 52 219 6.0 11.0 0.01 0.14 0.14 83 1005.2
20260903050755 52 240 6.0 11.0 0.01 0.14 0.14 83 1005.2
20260903050653 52 235 6.0 11.0 0.01 0.14 0.14 83 1005.2
20260903050550 52 250 6.0 11.0 0.01 0.14 0.14 83 1005.2
20260903050516 52 245 6.0 11.0 0.01 0.14 0.14 83 1005.2
20260903050422 52 245 6.0 11.0 0.01 0.14 0.14 83 1005.2
20260903050342 52 252 7.0 11.0 0.01 0.14 0.14 83 1005.2
20260903050142 52 253 5.0 11.0 0.01 0.14 0.14 83 1005.2
20260903050038 52 252 5.0 10.0 0.01 0.14 0.14 83 1005.1
20260903050005 52 244 5.0 10.0 0.01 0.14 0.14 83 1005.1
20260903045842 52 256 7.0 10.0 0.01 0.14 0.14 83 1005.2
20260903045808 52 265 6.0 10.0 0.01 0.14 0.14 83 1005.1
20260903045646 52 244 4.0 7.0 0.01 0.14 0.14 83 1005.1
20260903045615 52 244 4.0 7.0 0.01 0.14 0.14 83 1005.0
20260903045452 53 243 4.0 7.0 0.01 0.14 0.14 83 1005.0
20260903045338 53 242 3.0 7.0 0.01 0.14 0.14 83 1005.0
20260903045256 53 242 3.0 7.0 0.01 0.14 0.14 82 1005.0
20260903045203 53 242 4.0 7.0 0.01 0.14 0.14 82 1005.0
20260903045039 53 242 4.0 7.0 0.01 0.14 0.14 82 1005.0
20260903044959 53 246 3.0 7.0 0.01 0.14 0.14 82 1004.9
20260903044838 53 246 2.0 5.0 0.01 0.14 0.14 82 1004.8
20260903044804 53 246 2.0 5.0 0.00 0.13 0.13 82 1004.8
20260903044640 53 246 3.0 5.0 0.00 0.13 0.13 82 1004.8
20260903044556 53 246 3.0 5.0 0.00 0.13 0.13 82 1004.8
20260903044504 53 246 3.0 5.0 0.00 0.13 0.13 82 1004.8
20260903044339 53 246 3.0 5.0 0.00 0.13 0.13 82 1004.8
20260903044240 53 246 3.0 9.0 0.00 0.13 0.13 82 1004.7
20260903044209 53 246 3.0 9.0 0.00 0.13 0.13 81 1004.7
20260903044051 53 246 3.0 9.0 0.00 0.13 0.13 81 1004.7
20260903044008 53 246 4.0 9.0 0.00 0.13 0.13 81 1004.7
20260903043853 53 246 3.0 9.0 0.00 0.13 0.13 81 1004.7
20260903043750 53 246 4.0 9.0 0.00 0.13 0.13 81 1004.7
20260903043657 53 246 4.0 9.0 0.00 0.13 0.13 80 1004.7
20260903043538 53 246 5.0 9.0 0.00 0.13 0.13 80 1004.7
20260903043455 53 246 6.0 9.0 0.00 0.13 0.13 80 1004.7
20260903043342 53 251 6.0 9.0 0.00 0.13 0.13 80 1004.7
20260903043258 53 285 6.0 9.0 0.00 0.13 0.13 79 1004.7
20260903043205 53 237 4.0 8.0 0.00 0.13 0.13 79 1004.7
20260903043041 53 257 2.0 7.0 0.00 0.13 0.13 79 1004.6
20260903042941 53 186 1.0 2.0 0.00 0.13 0.13 79 1004.6
20260903042847 53 186 0.0 0.0 0.00 0.13 0.13 79 1004.6
20260903042745 53 186 0.0 0.0 0.00 0.13 0.13 78 1004.6
20260903042653 53 186 0.0 0.0 0.00 0.13 0.13 78 1004.6
20260903042548 53 186 0.0 0.0 0.00 0.13 0.13 78 1004.6
20260903042446 53 186 0.0 0.0 0.00 0.13 0.13 78 1004.6
20260903042353 53 186 0.0 0.0 0.00 0.13 0.13 78 1004.6
20260903042255 53 186 0.0 0.0 0.00 0.13 0.13 78 1004.5
20260903042202 53 186 0.0 0.0 0.00 0.13 0.13 78 1004.5
20260903042038 53 186 0.0 0.0 0.00 0.13 0.13 78 1004.4
20260903041944 53 186 0.0 0.0 0.00 0.13 0.13 78 1004.4
20260903041841 53 186 0.0 0.0 0.00 0.13 0.13 78 1004.4
20260903041807 53 186 0.0 0.0 0.00 0.13 0.13 79 1004.4
20260903041643 53 186 0.0 0.0 0.00 0.13 0.13 79 1004.3
20260903041552 53 186 0.0 0.0 0.00 0.13 0.13 79 1004.3
20260903041449 53 186 0.0 0.0 0.00 0.13 0.13 79 1004.4
20260903041356 53 186 0.0 0.0 0.00 0.13 0.13 79 1004.3
20260903041314 53 186 0.0 2.0 0.00 0.13 0.13 78 1004.3
20260903041220 53 186 0.0 3.0 0.00 0.13 0.13 78 1004.2
20260903041104 53 186 0.0 3.0 0.00 0.13 0.13 78 1004.2
20260903040942 53 186 0.0 4.0 0.00 0.13 0.13 78 1004.2
20260903040843 53 186 0.0 4.0 0.00 0.13 0.13 78 1004.2
20260903040750 53 186 0.0 4.0 0.00 0.13 0.13 78 1004.2
20260903040708 53 186 0.0 4.0 0.00 0.13 0.13 78 1004.2
20260903040610 53 186 0.0 5.0 0.00 0.13 0.13 78 1004.2
20260903040456 53 186 1.0 5.0 0.00 0.13 0.13 78 1004.2
20260903040354 53 186 1.0 5.0 0.00 0.13 0.13 77 1004.2
20260903040330 53 186 2.0 5.0 0.00 0.13 0.13 77 1004.2
20260903040155 53 186 2.0 5.0 0.00 0.13 0.13 77 1004.2
20260903040104 53 186 3.0 5.0 0.00 0.13 0.13 77 1004.1
20260903035940 53 185 3.0 5.0 0.00 0.13 0.13 77 1004.1
20260903035847 53 185 3.0 5.0 0.00 0.13 0.13 76 1004.1
20260903035743 53 185 4.0 6.0 0.00 0.13 0.13 76 1004.1
20260903035650 53 185 4.0 5.0 0.00 0.13 0.13 76 1004.1
20260903035546 53 185 4.0 5.0 0.00 0.13 0.13 76 1004.1
20260903035453 53 187 3.0 5.0 0.00 0.13 0.13 76 1004.1
20260903035354 53 190 2.0 4.0 0.00 0.13 0.13 76 1004.0
20260903035300 53 190 0.0 3.0 0.00 0.13 0.13 76 1004.0
20260903035158 53 190 0.0 2.0 0.00 0.13 0.13 77 1004.0
20260903035104 53 190 0.0 2.0 0.00 0.13 0.13 77 1004.0
20260903034941 53 190 0.0 2.0 0.00 0.13 0.13 77 1004.0
20260903034838 53 190 0.0 2.0 0.00 0.13 0.13 77 1004.0
20260903034738 53 190 0.0 2.0 0.00 0.13 0.13 77 1004.0
20260903034647 53 190 0.0 2.0 0.00 0.13 0.13 77 1003.9
20260903034541 53 190 1.0 2.0 0.00 0.13 0.13 77 1003.9
20260903034448 53 190 1.0 2.0 0.00 0.13 0.13 77 1003.9
20260903034344 53 190 1.0 2.0 0.00 0.13 0.13 78 1003.9
20260903034251 53 190 1.0 2.0 0.00 0.13 0.13 78 1004.0
20260903034148 53 190 1.0 2.0 0.00 0.13 0.13 77 1003.9
20260903034054 53 190 0.0 2.0 0.00 0.13 0.13 77 1003.9
20260903034001 53 190 0.0 2.0 0.00 0.13 0.13 77 1003.9
20260903033838 53 190 0.0 2.0 0.00 0.13 0.13 77 1003.8
20260903033744 53 190 0.0 2.0 0.00 0.13 0.13 78 1003.8
20260903033643 53 190 1.0 2.0 0.00 0.13 0.13 78 1003.7
20260903033539 53 190 1.0 2.0 0.00 0.13 0.13 78 1003.7
20260903033445 53 190 2.0 2.0 0.00 0.13 0.13 77 1003.7
20260903033347 53 190 1.0 2.0 0.00 0.13 0.13 77 1003.7
20260903033254 53 190 0.0 2.0 0.00 0.13 0.13 77 1003.7
20260903033153 53 190 0.0 2.0 0.00 0.13 0.13 77 1003.7
20260903033045 53 190 1.0 2.0 0.00 0.13 0.13 77 1003.6
20260903032951 53 190 1.0 3.0 0.00 0.13 0.13 77 1003.7
20260903032848 53 190 0.0 3.0 0.00 0.13 0.13 77 1003.7
20260903032757 53 190 1.0 3.0 0.00 0.13 0.13 77 1003.7
20260903032704 53 190 1.0 3.0 0.00 0.13 0.13 77 1003.7
20260903032540 53 190 2.0 5.0 0.00 0.13 0.13 77 1003.7
20260903032437 53 190 1.0 5.0 0.00 0.13 0.13 77 1003.7
20260903032403 53 190 1.0 5.0 0.00 0.13 0.13 77 1003.7
20260903032240 53 190 1.0 5.0 0.00 0.13 0.13 77 1003.7
20260903032208 53 190 2.0 5.0 0.00 0.13 0.13 77 1003.7
20260903032107 53 190 2.0 5.0 0.00 0.13 0.13 77 1003.7
20260903031953 53 190 1.0 5.0 0.00 0.13 0.13 77 1003.7
20260903031848 53 190 2.0 5.0 0.00 0.13 0.13 77 1003.7
20260903031746 53 190 3.0 5.0 0.00 0.13 0.13 76 1003.8
20260903031654 53 190 3.0 5.0 0.00 0.13 0.13 76 1003.7
20260903031549 53 190 2.0 7.0 0.00 0.13 0.13 76 1003.8
20260903031456 53 190 3.0 8.0 0.00 0.13 0.13 76 1003.7
20260903031338 53 190 3.0 8.0 0.00 0.13 0.13 76 1003.7
20260903031304 53 190 3.0 8.0 0.00 0.13 0.13 76 1003.7
20260903031200 53 190 2.0 8.0 0.00 0.13 0.13 76 1003.6
20260903031106 53 190 2.0 8.0 0.00 0.13 0.13 76 1003.6
20260903030942 53 149 2.0 8.0 0.00 0.13 0.13 76 1003.5
20260903030909 53 149 2.0 8.0 0.00 0.13 0.13 76 1003.5
20260903030806 53 149 4.0 8.0 0.00 0.13 0.13 76 1003.5
20260903030656 53 148 4.0 8.0 0.00 0.13 0.13 76 1003.5
20260903030552 53 149 3.0 8.0 0.00 0.13 0.13 76 1003.5
20260903030458 53 140 2.0 4.0 0.00 0.13 0.13 76 1003.6
20260903030354 53 140 2.0 4.0 0.00 0.13 0.13 76 1003.6
20260903030309 53 140 2.0 4.0 0.00 0.13 0.13 76 1003.6
20260903030152 53 140 2.0 8.0 0.00 0.13 0.13 76 1003.4
20260903030037 53 140 2.0 9.0 0.00 0.13 0.13 76 1003.4
20260903025938 53 140 1.0 9.0 0.00 0.13 0.13 76 1003.4
20260903025846 53 140 1.0 9.0 0.00 0.13 0.13 76 1003.4
20260903025741 53 140 1.0 9.0 0.00 0.13 0.13 76 1003.3
20260903025649 53 140 2.0 12.0 0.00 0.13 0.13 76 1003.4
20260903025543 53 140 3.0 12.0 0.00 0.13 0.13 76 1003.4
20260903025450 53 140 4.0 12.0 0.00 0.13 0.13 76 1003.4
20260903025347 53 140 6.0 12.0 0.00 0.13 0.13 76 1003.4
20260903025314 53 140 6.0 12.0 0.00 0.13 0.13 76 1003.5
20260903025204 53 148 7.0 12.0 0.00 0.13 0.13 76 1003.5
20260903025040 53 152 6.0 12.0 0.00 0.13 0.13 76 1003.5
20260903024938 53 154 7.0 12.0 0.00 0.13 0.13 76 1003.5
20260903024844 53 136 7.0 12.0 0.00 0.13 0.13 76 1003.4
20260903024740 53 149 4.0 10.0 0.00 0.13 0.13 76 1003.4
20260903024649 53 183 4.0 10.0 0.01 0.13 0.13 76 1003.5
20260903024548 53 183 5.0 11.0 0.01 0.13 0.13 77 1003.5
20260903024515 53 159 6.0 11.0 0.01 0.13 0.13 77 1003.4
20260903024351 53 160 7.0 11.0 0.01 0.13 0.13 77 1003.4
20260903024257 53 131 6.0 11.0 0.01 0.13 0.13 77 1003.4
20260903024203 53 133 5.0 11.0 0.01 0.13 0.13 77 1003.4
20260903024057 53 131 6.0 12.0 0.01 0.13 0.13 77 1003.4
20260903005847 54 227 17.0 28.0 0.02 0.11 0.11 77 1004.1
20260903005814 54 225 18.0 28.0 0.02 0.11 0.11 77 1004.1
20260903005655 54 262 17.0 28.0 0.02 0.11 0.11 77 1004.0
20260903005559 54 264 15.0 27.0 0.02 0.11 0.11 77 1004.0
20260903005517 54 250 15.0 26.0 0.02 0.11 0.11 77 1004.1
20260903005343 54 225 15.0 23.0 0.02 0.11 0.11 78 1004.1
20260903005241 54 266 16.0 23.0 0.02 0.11 0.11 77 1004.1
20260903005141 54 192 15.0 24.0 0.03 0.11 0.11 78 1004.2
20260903005050 54 229 14.0 24.0 0.03 0.11 0.11 78 1004.2
20260903004947 54 277 12.0 21.0 0.03 0.11 0.11 78 1004.2
20260903004853 55 219 11.0 20.0 0.03 0.11 0.11 79 1004.2
20260903004750 55 266 9.0 20.0 0.03 0.11 0.11 79 1004.2
20260903004654 55 243 11.0 20.0 0.03 0.11 0.11 78 1004.2
20260903004549 55 248 12.0 21.0 0.03 0.11 0.11 78 1004.2
20260903004515 55 253 11.0 21.0 0.03 0.11 0.11 78 1004.3
20260903004356 55 257 11.0 21.0 0.05 0.11 0.11 78 1004.2
20260903004302 55 251 11.0 23.0 0.06 0.11 0.11 78 1004.2
20260903004141 55 254 11.0 24.0 0.06 0.11 0.11 78 1004.2
20260903004056 55 261 10.0 24.0 0.06 0.11 0.11 78 1004.1
20260903003941 55 248 10.0 24.0 0.07 0.11 0.11 79 1004.2
20260903003838 55 248 12.0 24.0 0.07 0.11 0.11 78 1004.2
20260903003738 55 257 13.0 22.0 0.07 0.11 0.11 78 1004.2
20260903003646 55 264 15.0 22.0 0.07 0.11 0.11 79 1004.4
20260903003542 55 250 16.0 22.0 0.07 0.11 0.11 80 1004.3
20260903003509 55 229 16.0 22.0 0.06 0.10 0.10 80 1004.4
20260903003415 56 237 15.0 22.0 0.06 0.10 0.10 81 1004.3
20260903003247 56 255 12.0 23.0 0.06 0.10 0.10 84 1004.3
20260903003154 56 241 10.0 22.0 0.06 0.10 0.10 84 1004.3
20260903003051 56 242 12.0 22.0 0.06 0.10 0.10 84 1004.2
20260903003001 56 248 13.0 22.0 0.06 0.10 0.10 84 1004.2
20260903002859 56 218 10.0 21.0 0.06 0.10 0.10 86 1004.1
20260903002805 56 225 8.0 21.0 0.06 0.10 0.10 87 1004.1
20260903002644 56 213 4.0 7.0 0.06 0.10 0.10 87 1004.2
20260903002540 56 213 3.0 7.0 0.06 0.10 0.10 86 1004.1
20260903002447 56 213 3.0 7.0 0.06 0.10 0.10 86 1004.3
20260903002346 56 213 3.0 7.0 0.06 0.10 0.10 86 1004.2
20260903002253 56 213 3.0 7.0 0.06 0.10 0.10 86 1004.1
20260903002212 57 213 3.0 7.0 0.06 0.10 0.10 86 1004.1
20260903002055 57 213 3.0 7.0 0.06 0.10 0.10 86 1004.1
20260903001953 57 255 2.0 3.0 0.06 0.10 0.10 86 1004.2
20260903001900 57 255 2.0 3.0 0.06 0.10 0.10 86 1004.2
20260903001757 57 255 2.0 3.0 0.06 0.10 0.10 86 1004.1
20260903001639 57 255 2.0 3.0 0.06 0.10 0.10 86 1004.1
20260903001544 57 255 2.0 3.0 0.06 0.10 0.10 85 1004.1
20260903001441 57 255 2.0 3.0 0.06 0.10 0.10 85 1004.1
20260903001347 57 255 2.0 3.0 0.06 0.10 0.10 85 1004.0
20260903001244 57 255 2.0 3.0 0.06 0.10 0.10 85 1004.0
20260903001143 57 255 2.0 3.0 0.06 0.10 0.10 84 1004.0
20260903001052 57 256 2.0 4.0 0.06 0.10 0.10 84 1004.0
20260903000949 57 256 2.0 4.0 0.06 0.10 0.10 84 1004.0
20260903000915 57 256 2.0 4.0 0.06 0.10 0.10 84 1004.0
20260903000752 57 256 1.0 4.0 0.06 0.10 0.10 84 1003.9
20260903000720 57 256 2.0 4.0 0.06 0.10 0.10 84 1003.8
20260903000604 57 256 2.0 4.0 0.05 0.09 0.09 84 1003.9
20260903000502 57 256 2.0 4.0 0.05 0.09 0.09 84 1003.9
20260903000409 57 256 2.0 4.0 0.05 0.09 0.09 83 1003.8
20260903000258 57 256 3.0 4.0 0.05 0.09 0.09 83 1003.9
20260903000154 57 256 2.0 4.0 0.05 0.09 0.09 83 1003.8
20260903000050 57 256 1.0 4.0 0.05 0.09 0.09 83 1003.8
20260902235956 57 256 0.0 4.0 0.05 0.09 0.09 83 1003.7
20260902235853 57 256 1.0 4.0 0.05 0.09 0.09 83 1003.8
20260902235758 57 256 1.0 4.0 0.05 0.09 0.09 83 1003.7
20260902235654 57 256 1.0 4.0 0.05 0.09 0.09 83 1003.7
20260902235542 57 256 1.0 4.0 0.05 0.09 0.09 83 1003.6
20260902235438 58 256 1.0 4.0 0.05 0.09 0.09 83 1003.7
20260902235344 58 256 2.0 5.0 0.05 0.09 0.09 83 1003.7
20260902235240 58 257 1.0 8.0 0.04 0.08 0.08 82 1003.7
20260902235208 58 257 1.0 8.0 0.04 0.08 0.08 82 1003.7
20260902235043 58 257 1.0 8.0 0.04 0.08 0.08 82 1003.8
20260902234950 58 257 2.0 8.0 0.04 0.08 0.08 82 1003.8
20260902234847 58 257 2.0 8.0 0.04 0.08 0.08 81 1003.8
20260902234753 58 257 2.0 8.0 0.04 0.08 0.08 81 1003.8
20260902234653 58 257 3.0 8.0 0.04 0.08 0.08 81 1003.7
20260902234548 58 257 4.0 8.0 0.04 0.08 0.08 81 1003.7
20260902234453 58 257 4.0 8.0 0.04 0.08 0.08 80 1003.8
20260902234349 58 256 4.0 8.0 0.02 0.06 0.06 79 1003.8
20260902234256 58 259 4.0 8.0 0.01 0.05 0.05 79 1003.8
20260902234157 58 260 5.0 8.0 0.01 0.05 0.05 79 1003.8
20260902234102 58 261 5.0 8.0 0.01 0.05 0.05 78 1003.7
20260902233938 58 265 5.0 8.0 0.00 0.04 0.04 77 1003.7
20260902233905 58 267 4.0 8.0 0.00 0.04 0.04 77 1003.7
20260902233740 58 225 5.0 7.0 0.00 0.04 0.04 77 1003.6
20260902233659 58 201 5.0 7.0 0.00 0.04 0.04 77 1003.6
20260902233547 58 201 5.0 7.0 0.00 0.04 0.04 77 1003.5
20260902233443 58 200 4.0 9.0 0.00 0.04 0.04 77 1003.5
20260902233350 58 200 3.0 9.0 0.00 0.04 0.04 77 1003.4
20260902233247 58 194 4.0 12.0 0.00 0.04 0.04 76 1003.4
20260902233145 58 194 5.0 12.0 0.00 0.04 0.04 76 1003.4
20260902233049 58 171 5.0 12.0 0.00 0.04 0.04 77 1003.4
20260902233015 58 179 5.0 12.0 0.00 0.04 0.04 77 1003.4
20260902232855 58 177 5.0 12.0 0.00 0.04 0.04 76 1003.4
20260902232801 58 177 5.0 12.0 0.00 0.04 0.04 76 1003.4
20260902232639 58 173 5.0 12.0 0.00 0.04 0.04 77 1003.4
20260902232554 58 201 5.0 12.0 0.00 0.04 0.04 76 1003.4
20260902232501 58 203 5.0 12.0 0.00 0.04 0.04 77 1003.4
20260902232358 57 178 5.0 10.0 0.00 0.04 0.04 77 1003.4
20260902232306 57 210 6.0 10.0 0.00 0.04 0.04 77 1003.3
20260902232153 57 173 5.0 11.0 0.00 0.04 0.04 77 1003.3
20260902232049 57 219 4.0 11.0 0.00 0.04 0.04 78 1003.4
20260902231946 57 151 5.0 11.0 0.00 0.04 0.04 77 1003.3
20260902231853 57 196 5.0 11.0 0.00 0.04 0.04 78 1003.3
20260902231750 57 175 4.0 11.0 0.00 0.04 0.04 77 1003.3
20260902231657 57 194 5.0 11.0 0.00 0.04 0.04 77 1003.4
20260902231553 57 151 6.0 11.0 0.00 0.04 0.04 77 1003.4
20260902231455 57 206 6.0 11.0 0.00 0.04 0.04 77 1003.4
20260902231340 57 150 6.0 11.0 0.00 0.04 0.04 77 1003.3
20260902231306 57 198 6.0 12.0 0.00 0.04 0.04 77 1003.3
20260902231145 57 202 5.0 12.0 0.00 0.04 0.04 77 1003.3
20260902231110 57 146 6.0 12.0 0.00 0.04 0.04 78 1003.3
20260902231007 57 185 6.0 12.0 0.00 0.04 0.04 78 1003.4
20260902230853 57 188 6.0 12.0 0.00 0.04 0.04 78 1003.4
20260902230755 57 194 6.0 12.0 0.00 0.04 0.04 78 1003.4
20260902230703 57 215 5.0 12.0 0.00 0.04 0.04 78 1003.4
20260902230539 57 177 6.0 12.0 0.00 0.04 0.04 78 1003.4
20260902230506 57 198 6.0 12.0 0.00 0.04 0.04 78 1003.4
20260902230343 57 202 5.0 11.0 0.00 0.04 0.04 78 1003.5
20260902230300 57 210 5.0 11.0 0.00 0.04 0.04 78 1003.4
20260902230206 57 167 5.0 11.0 0.00 0.04 0.04 78 1003.4
20260902230052 57 211 5.0 11.0 0.00 0.04 0.04 78 1003.4
20260902230017 57 185 4.0 11.0 0.00 0.04 0.04 78 1003.5
20260902225854 57 185 6.0 11.0 0.00 0.04 0.04 78 1003.5
20260902225757 57 166 6.0 15.0 0.00 0.04 0.04 78 1003.4
20260902225656 57 221 5.0 15.0 0.00 0.04 0.04 78 1003.4
20260902225559 57 143 5.0 15.0 0.00 0.04 0.04 78 1003.4
20260902225456 57 223 5.0 15.0 0.00 0.04 0.04 78 1003.4
20260902225401 58 172 4.0 15.0 0.00 0.04 0.04 78 1003.3
20260902225243 58 168 5.0 15.0 0.00 0.04 0.04 77 1003.3
20260902225212 58 188 7.0 15.0 0.00 0.04 0.04 76 1003.3
20260902225047 58 178 7.0 15.0 0.00 0.04 0.04 76 1003.4
20260902224953 58 147 6.0 15.0 0.00 0.04 0.04 76 1003.3
20260902224850 58 179 7.0 15.0 0.00 0.04 0.04 76 1003.4
20260902224747 58 183 6.0 15.0 0.00 0.04 0.04 76 1003.4
20260902224639 58 197 5.0 15.0 0.00 0.04 0.04 75 1003.4
20260902224556 58 204 6.0 16.0 0.00 0.04 0.04 75 1003.4
20260902224502 58 219 6.0 16.0 0.00 0.04 0.04 74 1003.4
20260902224339 58 135 6.0 16.0 0.00 0.04 0.04 74 1003.3
20260902224245 58 162 7.0 16.0 0.00 0.04 0.04 73 1003.3
20260902224144 58 198 6.0 16.0 0.00 0.04 0.04 73 1003.3
20260902224040 58 199 6.0 16.0 0.00 0.04 0.04 73 1003.2
20260902223951 58 160 8.0 16.0 0.00 0.04 0.04 73 1003.2
20260902223849 58 172 10.0 16.0 0.00 0.04 0.04 73 1003.1
20260902223756 58 209 8.0 16.0 0.00 0.04 0.04 73 1003.2
20260902223653 58 212 5.0 17.0 0.00 0.04 0.04 73 1003.1
20260902223558 58 202 7.0 25.0 0.00 0.04 0.04 73 1003.1
20260902223456 58 178 6.0 25.0 0.00 0.04 0.04 74 1003.1
20260902223337 58 160 6.0 25.0 0.00 0.04 0.04 73 1003.1
20260902223245 58 186 6.0 25.0 0.00 0.04 0.04 73 1003.1
20260902223204 58 156 9.0 25.0 0.00 0.04 0.04 73 1003.1
20260902223047 58 165 11.0 25.0 0.00 0.04 0.04 73 1003.1
20260902222944 58 140 10.0 25.0 0.00 0.04 0.04 73 1003.1
20260902222851 58 178 12.0 25.0 0.00 0.04 0.04 72 1003.0
20260902222748 58 218 11.0 25.0 0.00 0.04 0.04 72 1003.0
20260902222652 58 150 10.0 18.0 0.00 0.04 0.04 72 1002.8
20260902222559 58 177 10.0 18.0 0.00 0.04 0.04 73 1002.9
20260902222456 58 148 10.0 18.0 0.00 0.04 0.04 72 1003.0
20260902222342 58 162 9.0 18.0 0.00 0.04 0.04 72 1002.9
20260902222239 58 184 10.0 18.0 0.00 0.04 0.04 73 1003.0
20260902222207 58 156 9.0 18.0 0.00 0.04 0.04 73 1003.0
20260902222101 58 156 8.0 18.0 0.00 0.04 0.04 73 1002.9
20260902221947 58 157 9.0 18.0 0.00 0.04 0.04 72 1002.8
20260902221847 58 195 11.0 18.0 0.00 0.04 0.04 71 1002.8
20260902221743 58 150 9.0 18.0 0.01 0.04 0.04 71 1002.8
20260902221711 58 152 9.0 18.0 0.01 0.04 0.04 71 1002.7
20260902221551 58 171 11.0 18.0 0.01 0.04 0.04 71 1002.8
20260902221449 58 152 10.0 17.0 0.01 0.04 0.04 72 1002.8
20260902221356 58 111 9.0 22.0 0.01 0.04 0.04 71 1002.8
20260902221254 58 177 8.0 22.0 0.01 0.04 0.04 71 1003.0
20260902221201 58 195 8.0 22.0 0.01 0.04 0.04 71 1002.9
20260902221041 58 158 10.0 22.0 0.01 0.04 0.04 71 1002.9
20260902220939 58 188 10.0 22.0 0.01 0.04 0.04 71 1003.1
20260902220846 58 122 12.0 22.0 0.01 0.04 0.04 71 1003.0
20260902220743 58 144 11.0 22.0 0.01 0.04 0.04 71 1003.1
20260902220651 58 190 11.0 22.0 0.01 0.04 0.04 71 1003.1
20260902220547 58 173 12.0 22.0 0.01 0.04 0.04 71 1003.1
20260902220447 58 177 11.0 20.0 0.01 0.04 0.04 72 1003.2
20260902220350 58 158 8.0 21.0 0.01 0.04 0.04 72 1003.1
20260902220306 58 154 8.0 22.0 0.01 0.04 0.04 71 1003.1
20260902220148 58 219 11.0 22.0 0.01 0.04 0.04 72 1003.0
20260902220053 58 217 9.0 23.0 0.01 0.04 0.04 71 1003.0
20260902215949 58 140 7.0 23.0 0.01 0.04 0.04 72 1003.1
20260902215855 58 194 7.0 23.0 0.01 0.04 0.04 72 1003.1
20260902215737 58 220 8.0 23.0 0.01 0.04 0.04 72 1003.1
20260902215705 58 131 9.0 23.0 0.01 0.04 0.04 72 1003.1
20260902215541 58 142 11.0 23.0 0.01 0.04 0.04 72 1003.1
20260902215438 58 131 12.0 23.0 0.01 0.04 0.04 72 1003.1
20260902215345 58 130 13.0 23.0 0.01 0.04 0.04 72 1003.1
20260902215306 57 177 11.0 23.0 0.01 0.04 0.04 72 1003.2
20260902215150 57 194 10.0 20.0 0.01 0.04 0.04 73 1003.1
20260902215118 57 172 11.0 23.0 0.01 0.04 0.04 73 1003.1
20260902214953 57 214 10.0 19.0 0.01 0.04 0.04 74 1003.1
20260902214758 57 121 9.0 19.0 0.01 0.04 0.04 74 1003.1
20260902214656 57 151 9.0 19.0 0.02 0.04 0.04 75 1003.1
20260902214601 57 129 9.0 19.0 0.02 0.04 0.04 75 1003.1
20260902214458 57 160 8.0 19.0 0.02 0.04 0.04 75 1003.1
20260902214348 57 134 8.0 22.0 0.02 0.04 0.04 75 1003.1
20260902214244 57 164 7.0 22.0 0.02 0.04 0.04 75 1003.1
20260902214144 56 161 8.0 23.0 0.02 0.04 0.04 75 1003.2
20260902214048 56 142 11.0 23.0 0.02 0.04 0.04 75 1003.2
20260902213946 56 149 9.0 23.0 0.02 0.04 0.04 75 1003.3
20260902213912 56 144 6.0 23.0 0.02 0.04 0.04 75 1003.3
20260902213759 56 160 7.0 23.0 0.02 0.04 0.04 75 1003.3
20260902213700 56 173 10.0 23.0 0.02 0.04 0.04 76 1003.2
20260902213603 56 146 10.0 23.0 0.02 0.04 0.04 76 1003.2
20260902213439 56 183 9.0 23.0 0.02 0.04 0.04 76 1003.2
20260902213346 56 146 10.0 23.0 0.02 0.04 0.04 76 1003.2